FW0869 Weather Reports


Display with metric or nautical units.
time (UTC)temp
F
wind
direction
speed
MPH
gust
MPH
rain 1hr
in
rain 24hr
in
rain mn
in
humidity
%
barometer
mb
20260508113509 41 342 2.0 4.0 0.00 0.04 0.00 88 1018.6
20260508113415 41 342 2.0 5.0 0.00 0.04 0.00 88 1018.5
20260508113210 41 342 2.0 5.0 0.00 0.04 0.00 88 1018.5
20260508113021 41 342 3.0 5.0 0.00 0.04 0.00 88 1018.5
20260508113001 41 342 3.0 5.0 0.00 0.04 0.00 88 1018.5
20260508112859 41 342 3.0 5.0 0.00 0.04 0.00 88 1018.5
20260508112808 41 342 3.0 5.0 0.00 0.04 0.00 88 1018.5
20260508112556 41 342 3.0 5.0 0.00 0.04 0.00 88 1018.5
20260508112514 41 342 3.0 5.0 0.00 0.04 0.00 88 1018.5
20260508112456 41 342 3.0 5.0 0.00 0.04 0.00 88 1018.5
20260508112355 41 342 3.0 5.0 0.00 0.04 0.00 88 1018.5
20260508112256 41 342 3.0 5.0 0.00 0.04 0.00 88 1018.5
20260508112153 41 342 3.0 5.0 0.00 0.04 0.00 88 1018.5
20260508112050 41 342 3.0 5.0 0.00 0.04 0.00 88 1018.4
20260508112009 41 342 3.0 5.0 0.00 0.04 0.00 88 1018.4
20260508111949 41 342 3.0 5.0 0.00 0.04 0.00 88 1018.4
20260508111857 41 342 3.0 4.0 0.00 0.04 0.00 88 1018.5
20260508111647 41 342 2.0 4.0 0.00 0.04 0.00 88 1018.4
20260508111546 41 342 2.0 4.0 0.00 0.04 0.00 87 1018.4
20260508111503 41 342 2.0 4.0 0.00 0.04 0.00 87 1018.4
20260508111446 41 342 2.0 4.0 0.00 0.04 0.00 87 1018.4
20260508111346 41 342 2.0 3.0 0.00 0.04 0.00 87 1018.4
20260508111245 41 342 2.0 4.0 0.00 0.04 0.00 87 1018.4
20260508111141 41 342 2.0 4.0 0.00 0.04 0.00 87 1018.4
20260508111048 41 342 3.0 4.0 0.00 0.04 0.00 87 1018.4
20260508111040 41 342 3.0 5.0 0.00 0.04 0.00 87 1018.4
20260508110836 41 342 3.0 5.0 0.00 0.04 0.00 87 1018.4
20260508110735 41 342 3.0 6.0 0.00 0.04 0.00 87 1018.4
20260508110636 42 342 3.0 6.0 0.00 0.04 0.00 87 1018.4
20260508110530 42 342 4.0 6.0 0.00 0.04 0.00 87 1018.4
20260508110430 42 342 4.0 6.0 0.00 0.04 0.00 87 1018.4
20260508110337 42 342 4.0 6.0 0.00 0.04 0.00 87 1018.4
20260508110129 42 342 4.0 6.0 0.00 0.04 0.00 87 1018.4
20260508110026 42 342 4.0 6.0 0.00 0.04 0.00 88 1018.4
20260508105944 42 342 3.0 6.0 0.00 0.04 0.00 88 1018.4
20260508105924 42 348 3.0 6.0 0.00 0.04 0.00 88 1018.4
20260508105831 42 345 3.0 6.0 0.00 0.04 0.00 88 1018.4
20260508105623 41 319 3.0 5.0 0.00 0.04 0.00 88 1018.4
20260508105519 41 315 3.0 5.0 0.00 0.04 0.00 88 1018.4
20260508105439 41 328 2.0 5.0 0.00 0.04 0.00 88 1018.3
20260508105420 41 308 2.0 5.0 0.00 0.04 0.00 87 1018.3
20260508105320 41 9 2.0 4.0 0.00 0.04 0.00 87 1018.3
20260508105220 41 9 2.0 4.0 0.00 0.04 0.00 87 1018.3
20260508105120 41 9 3.0 4.0 0.00 0.04 0.00 87 1018.3
20260508104911 41 9 3.0 8.0 0.00 0.04 0.00 86 1018.3
20260508104812 41 9 3.0 8.0 0.00 0.04 0.00 86 1018.1
20260508104718 41 9 3.0 8.0 0.00 0.04 0.00 86 1018.3
20260508104533 42 9 3.0 8.0 0.00 0.04 0.00 86 1018.0
20260508104411 42 9 3.0 8.0 0.00 0.04 0.00 86 1018.0
20260508104310 42 9 3.0 8.0 0.00 0.04 0.00 86 1018.1
20260508104209 42 9 3.0 8.0 0.00 0.04 0.00 86 1018.1
20260508104105 42 21 3.0 8.0 0.00 0.04 0.00 86 1018.1
20260508104013 42 17 4.0 8.0 0.00 0.04 0.00 86 1018.1
20260508104006 42 24 3.0 7.0 0.00 0.04 0.00 86 1018.1
20260508103802 42 26 4.0 7.0 0.00 0.04 0.00 86 1018.1
20260508103702 42 19 4.0 9.0 0.00 0.04 0.00 86 1018.1
20260508103559 42 15 4.0 9.0 0.00 0.04 0.00 86 1018.1
20260508103454 42 15 4.0 9.0 0.00 0.04 0.00 86 1018.1
20260508103415 42 15 4.0 9.0 0.00 0.04 0.00 86 1018.0
20260508103354 42 15 4.0 9.0 0.00 0.04 0.00 86 1018.0
20260508103254 42 15 4.0 9.0 0.00 0.04 0.00 86 1018.0
20260508103200 42 19 3.0 9.0 0.00 0.04 0.00 86 1018.0
20260508102948 42 53 3.0 9.0 0.00 0.04 0.00 87 1018.0
20260508102909 42 45 3.0 9.0 0.00 0.04 0.00 87 1018.0
20260508102848 42 33 2.0 9.0 0.00 0.04 0.00 86 1018.0
20260508102747 42 50 2.0 9.0 0.00 0.04 0.00 86 1018.0
20260508102648 42 38 1.0 9.0 0.00 0.04 0.00 86 1017.9
20260508102548 42 279 1.0 3.0 0.00 0.04 0.00 86 1017.8
20260508102454 42 279 1.0 3.0 0.00 0.04 0.00 86 1017.8
20260508102447 42 279 1.0 3.0 0.00 0.04 0.00 85 1017.8
20260508102250 42 279 1.0 3.0 0.00 0.04 0.00 85 1017.5
20260508102041 42 279 2.0 6.0 0.00 0.04 0.00 85 1017.3
20260508101943 42 279 2.0 6.0 0.00 0.04 0.00 85 1017.3
20260508101857 42 279 2.0 6.0 0.00 0.04 0.00 86 1017.3
20260508101839 42 279 2.0 6.0 0.00 0.04 0.00 86 1017.2
20260508101738 42 279 2.0 6.0 0.00 0.04 0.00 86 1017.2
20260508101642 42 279 2.0 6.0 0.00 0.04 0.00 86 1017.2
20260508101432 42 279 2.0 6.0 0.00 0.04 0.00 86 1017.3
20260508101330 42 279 2.0 6.0 0.00 0.04 0.00 85 1017.3
20260508101231 42 279 2.0 6.0 0.00 0.04 0.00 85 1017.3
20260508101130 42 279 2.0 4.0 0.00 0.04 0.00 85 1017.2
20260508101029 42 279 2.0 4.0 0.00 0.04 0.00 85 1017.2
20260508100929 42 279 2.0 4.0 0.00 0.04 0.00 85 1017.2
20260508100827 42 279 2.0 4.0 0.00 0.04 0.00 85 1017.2
20260508100728 42 279 2.0 4.0 0.00 0.04 0.00 85 1017.2
20260508100626 42 279 2.0 4.0 0.00 0.04 0.00 85 1017.3
20260508100537 42 279 2.0 4.0 0.00 0.04 0.00 85 1017.3
20260508100531 42 279 2.0 4.0 0.00 0.04 0.00 85 1017.3
20260508100219 42 279 2.0 4.0 0.00 0.04 0.00 85 1017.4
20260508100120 42 279 2.0 3.0 0.00 0.04 0.00 85 1017.3
20260508100017 42 279 2.0 3.0 0.00 0.04 0.00 85 1017.3
20260508095914 42 279 2.0 3.0 0.00 0.04 0.00 85 1017.3
20260508095812 42 279 2.0 3.0 0.00 0.04 0.00 85 1017.3
20260508095712 42 279 2.0 3.0 0.00 0.04 0.00 85 1017.4
20260508095612 42 279 2.0 3.0 0.00 0.04 0.00 85 1017.4
20260508095540 42 279 2.0 3.0 0.00 0.04 0.00 85 1017.3
20260508095312 42 279 2.0 3.0 0.00 0.04 0.00 84 1017.3
20260508095105 42 279 2.0 3.0 0.00 0.04 0.00 84 1017.3
20260508095006 42 279 2.0 3.0 0.00 0.04 0.00 84 1017.3
20260508094901 42 279 2.0 4.0 0.00 0.04 0.00 84 1017.4
20260508094820 42 279 2.0 4.0 0.00 0.04 0.00 84 1017.4
20260508094801 42 279 2.0 4.0 0.00 0.04 0.00 84 1017.4
20260508094659 42 279 2.0 4.0 0.00 0.04 0.00 84 1017.4
20260508094600 42 279 2.0 4.0 0.00 0.04 0.00 84 1017.4
20260508094512 43 279 2.0 4.0 0.00 0.04 0.00 84 1017.5
20260508094505 43 279 2.0 4.0 0.00 0.04 0.00 84 1017.5
20260508094202 43 279 2.0 4.0 0.00 0.04 0.00 84 1017.5
20260508093957 43 279 2.0 4.0 0.00 0.04 0.00 84 1017.4
20260508093808 43 279 2.0 4.0 0.00 0.04 0.00 83 1017.4
20260508093747 43 279 2.0 4.0 0.00 0.04 0.00 83 1017.4
20260508093647 43 279 2.0 3.0 0.00 0.04 0.00 83 1017.4
20260508093548 43 279 2.0 3.0 0.00 0.04 0.00 83 1017.4
20260508093448 43 279 2.0 3.0 0.00 0.04 0.00 83 1017.3
20260508093302 43 279 2.0 3.0 0.00 0.04 0.00 83 1017.4
20260508093241 43 279 2.0 3.0 0.00 0.04 0.00 83 1017.4
20260508093142 43 279 2.0 3.0 0.00 0.04 0.00 83 1017.4
20260508093042 44 279 2.0 3.0 0.00 0.04 0.00 83 1017.4
20260508092941 44 279 1.0 3.0 0.00 0.04 0.00 83 1017.5
20260508092837 44 279 1.0 3.0 0.00 0.04 0.00 83 1017.5
20260508092736 44 279 1.0 3.0 0.00 0.04 0.00 83 1017.5
20260508092636 44 279 1.0 3.0 0.00 0.04 0.00 83 1017.5
20260508092536 44 279 1.0 3.0 0.00 0.04 0.00 83 1017.5
20260508092436 44 279 1.0 3.0 0.00 0.04 0.00 83 1017.5
20260508092331 44 279 1.0 3.0 0.00 0.04 0.00 83 1017.4
20260508092230 44 279 2.0 4.0 0.00 0.04 0.00 83 1017.4
20260508092137 44 279 2.0 6.0 0.00 0.04 0.00 83 1017.4
20260508091930 44 279 2.0 6.0 0.00 0.04 0.00 83 1017.4
20260508091830 44 279 2.0 6.0 0.00 0.04 0.00 83 1017.4
20260508091727 44 279 2.0 6.0 0.00 0.04 0.00 83 1017.5
20260508091627 44 279 2.0 6.0 0.00 0.04 0.00 83 1017.5
20260508091526 44 279 2.0 6.0 0.00 0.04 0.00 83 1017.7
20260508091424 44 279 2.0 6.0 0.00 0.04 0.00 83 1017.7
20260508091320 44 279 2.0 6.0 0.00 0.04 0.00 83 1017.7
20260508091245 44 279 2.0 6.0 0.00 0.04 0.00 83 1017.7
20260508091226 44 311 2.0 5.0 0.00 0.04 0.00 83 1017.7
20260508091018 44 311 2.0 4.0 0.00 0.04 0.00 83 1017.7
20260508090931 44 311 2.0 3.0 0.00 0.04 0.00 82 1017.5
20260508090817 44 311 2.0 3.0 0.00 0.04 0.00 82 1017.5
20260508090611 44 311 2.0 4.0 0.00 0.04 0.00 82 1017.5
20260508090511 45 311 2.0 5.0 0.00 0.04 0.00 82 1017.5
20260508090411 45 311 2.0 6.0 0.00 0.04 0.00 82 1017.5
20260508090318 45 311 3.0 6.0 0.00 0.04 0.00 82 1017.7
20260508090311 45 311 3.0 6.0 0.00 0.04 0.00 82 1017.5
20260508090113 45 311 3.0 7.0 0.00 0.04 0.00 82 1017.5
20260508085905 45 311 3.0 7.0 0.00 0.04 0.00 82 1017.7
20260508085804 45 311 4.0 7.0 0.00 0.04 0.00 82 1017.7
20260508085745 45 311 4.0 7.0 0.00 0.04 0.00 82 1017.7
20260508085705 45 311 4.0 7.0 0.00 0.04 0.00 83 1017.7
20260508085602 45 302 4.0 7.0 0.00 0.04 0.00 83 1017.7
20260508085501 45 317 3.0 7.0 0.00 0.04 0.00 83 1017.7
20260508085359 44 306 3.0 7.0 0.00 0.04 0.00 83 1017.7
20260508085254 44 315 3.0 7.0 0.00 0.04 0.00 83 1017.7
20260508085245 44 305 3.0 7.0 0.00 0.04 0.00 83 1017.5
20260508085154 44 314 3.0 6.0 0.00 0.04 0.00 83 1017.5
20260508085053 44 344 3.0 4.0 0.00 0.04 0.00 83 1017.7
20260508085000 44 344 3.0 4.0 0.00 0.04 0.00 83 1017.5
20260508084755 44 344 3.0 4.0 0.00 0.04 0.00 82 1017.7
20260508084547 45 344 3.0 5.0 0.00 0.04 0.00 83 1017.7
20260508084448 45 344 3.0 5.0 0.00 0.04 0.00 83 1017.7
20260508084359 45 344 3.0 6.0 0.00 0.04 0.00 83 1017.7
20260508084248 45 344 3.0 6.0 0.00 0.04 0.00 83 1017.7
20260508084146 44 344 3.0 6.0 0.00 0.04 0.00 83 1017.7
20260508084045 44 344 3.0 6.0 0.00 0.04 0.00 83 1017.7
20260508083944 44 344 3.0 6.0 0.00 0.04 0.00 83 1017.7
20260508083841 44 344 3.0 6.0 0.00 0.04 0.00 83 1017.7
20260508083743 44 344 3.0 6.0 0.00 0.04 0.00 83 1017.8
20260508083536 44 321 2.0 6.0 0.00 0.04 0.00 82 1017.8
20260508083442 44 340 2.0 6.0 0.00 0.04 0.00 82 1017.9
20260508083243 45 299 2.0 5.0 0.00 0.04 0.00 82 1017.9
20260508083230 45 345 2.0 4.0 0.00 0.04 0.00 81 1017.9
20260508083137 45 345 2.0 4.0 0.00 0.04 0.00 81 1017.9
20260508082931 45 345 2.0 4.0 0.00 0.04 0.00 81 1017.9
20260508082835 45 345 2.0 4.0 0.00 0.04 0.00 81 1017.9
20260508082828 45 345 2.0 4.0 0.00 0.04 0.00 81 1017.9
20260508082624 45 345 2.0 4.0 0.00 0.04 0.00 81 1017.9
20260508082524 45 345 2.0 4.0 0.00 0.04 0.00 81 1018.0
20260508082424 45 345 2.0 4.0 0.00 0.04 0.00 81 1018.0
20260508082323 45 342 2.0 4.0 0.00 0.04 0.00 81 1018.0
20260508082221 45 333 2.0 4.0 0.00 0.04 0.00 80 1018.0
20260508082122 45 333 2.0 4.0 0.00 0.04 0.00 80 1017.9
20260508082026 45 333 2.0 4.0 0.00 0.04 0.00 80 1017.9
20260508081818 46 333 2.0 4.0 0.00 0.04 0.00 80 1017.9
20260508081711 46 333 3.0 4.0 0.00 0.04 0.00 80 1018.0
20260508081612 46 300 3.0 5.0 0.00 0.04 0.00 80 1018.0
20260508081511 46 300 3.0 6.0 0.00 0.04 0.00 81 1018.0
20260508081413 46 310 3.0 6.0 0.00 0.04 0.00 80 1017.9
20260508081311 46 48 3.0 6.0 0.00 0.04 0.00 80 1017.9
20260508081212 46 48 3.0 6.0 0.00 0.04 0.00 80 1017.9
20260508081109 46 48 4.0 6.0 0.00 0.04 0.00 80 1017.9
20260508081010 46 48 4.0 6.0 0.00 0.04 0.00 80 1017.9
20260508080912 46 48 4.0 6.0 0.00 0.04 0.00 80 1017.8
20260508080741 46 37 4.0 6.0 0.00 0.04 0.00 80 1017.8
20260508080705 46 50 4.0 6.0 0.00 0.04 0.00 80 1017.8
20260508080605 46 48 4.0 6.0 0.00 0.04 0.00 80 1017.9
20260508080512 46 34 4.0 6.0 0.00 0.04 0.00 80 1017.9
20260508080306 46 349 4.0 6.0 0.00 0.04 0.00 80 1018.0
20260508080242 46 349 3.0 6.0 0.00 0.04 0.00 80 1018.0
20260508080206 46 0 3.0 6.0 0.00 0.04 0.00 80 1018.0
20260508080113 46 9 3.0 6.0 0.00 0.04 0.00 80 1018.1
20260508075904 46 9 3.0 6.0 0.00 0.04 0.00 81 1018.0
20260508075804 46 22 3.0 6.0 0.00 0.04 0.00 81 1018.0
20260508075741 45 22 3.0 6.0 0.00 0.04 0.00 81 1018.0
20260508075705 45 22 3.0 6.0 0.00 0.04 0.00 80 1018.0
20260508075604 45 44 3.0 5.0 0.00 0.04 0.00 80 1018.1
20260508075526 45 5 3.0 5.0 0.00 0.04 0.00 80 1018.3
20260508075308 45 11 3.0 4.0 0.00 0.04 0.00 81 1018.4
20260508075101 45 11 3.0 4.0 0.00 0.04 0.00 81 1018.5
20260508075002 45 11 2.0 4.0 0.00 0.04 0.00 81 1018.6
20260508074916 45 11 2.0 4.0 0.00 0.04 0.00 82 1018.6
20260508074801 45 11 2.0 4.0 0.00 0.04 0.00 82 1018.6
20260508074555 44 11 2.0 4.0 0.00 0.04 0.00 82 1018.6
20260508074450 44 11 2.0 4.0 0.00 0.04 0.00 81 1018.5
20260508074349 44 11 2.0 6.0 0.00 0.04 0.00 81 1018.6
20260508074231 44 11 3.0 6.0 0.00 0.04 0.00 81 1018.5
20260508074150 44 11 3.0 6.0 0.00 0.04 0.00 81 1018.5
20260508074049 44 11 3.0 6.0 0.00 0.04 0.00 81 1018.4
20260508073951 44 11 3.0 6.0 0.00 0.04 0.00 80 1018.4
20260508073732 44 11 3.0 6.0 0.00 0.04 0.00 80 1018.4
20260508073644 44 11 3.0 6.0 0.00 0.04 0.00 80 1018.5
20260508073543 44 351 2.0 6.0 0.00 0.04 0.00 79 1018.5
20260508073442 44 349 2.0 6.0 0.00 0.04 0.00 79 1018.4
20260508073341 44 0 2.0 4.0 0.00 0.04 0.00 79 1018.4
20260508073231 44 20 2.0 4.0 0.00 0.04 0.00 78 1018.4
20260508073140 44 253 2.0 4.0 0.00 0.04 0.00 78 1018.4
20260508073039 44 253 2.0 4.0 0.00 0.04 0.00 77 1018.4
20260508072937 44 253 1.0 4.0 0.00 0.04 0.00 77 1018.4
20260508072843 44 253 1.0 4.0 0.00 0.04 0.00 77 1018.5
20260508072836 44 253 1.0 3.0 0.00 0.04 0.00 77 1018.4
20260508072633 44 253 1.0 3.0 0.00 0.04 0.00 77 1018.4
20260508072533 45 253 1.0 3.0 0.00 0.04 0.00 77 1018.4
20260508072325 45 253 1.0 3.0 0.00 0.04 0.00 77 1018.4
20260508072232 45 253 1.0 3.0 0.00 0.04 0.00 77 1018.3
20260508072025 45 253 2.0 4.0 0.00 0.04 0.00 77 1018.3
20260508071923 45 253 2.0 4.0 0.00 0.04 0.00 77 1018.3
20260508071823 45 253 1.0 4.0 0.00 0.04 0.00 77 1018.3
20260508071723 45 253 1.0 4.0 0.00 0.04 0.00 76 1018.3
20260508071622 45 253 1.0 4.0 0.00 0.04 0.00 76 1018.3
20260508071520 45 253 1.0 4.0 0.00 0.04 0.00 76 1018.3
20260508071421 45 253 1.0 4.0 0.00 0.04 0.00 76 1018.3
20260508071214 45 253 1.0 4.0 0.00 0.04 0.00 76 1018.3
20260508071113 45 253 1.0 3.0 0.00 0.04 0.00 76 1018.3
20260508071013 46 253 1.0 3.0 0.00 0.04 0.00 76 1018.1
20260508070914 46 253 1.0 3.0 0.00 0.04 0.00 76 1018.1
20260508070707 46 253 1.0 3.0 0.00 0.04 0.00 76 1018.0
20260508070607 46 253 1.0 3.0 0.00 0.04 0.00 76 1018.0
20260508070517 46 253 2.0 3.0 0.00 0.04 0.00 76 1018.0
20260508070203 46 253 1.0 3.0 0.00 0.04 0.00 77 1018.1
20260508070001 46 253 1.0 3.0 0.00 0.04 0.00 76 1017.9
20260508065906 46 253 1.0 3.0 0.00 0.04 0.00 76 1017.9
20260508065724 46 253 1.0 3.0 0.00 0.04 0.00 76 1017.9
20260508065658 46 253 1.0 3.0 0.00 0.04 0.00 76 1017.9
20260508065557 46 253 0.0 2.0 0.00 0.04 0.00 75 1017.9
20260508065455 46 253 0.0 2.0 0.00 0.04 0.00 75 1018.0
20260508065356 46 253 0.0 2.0 0.00 0.04 0.00 75 1018.0
20260508065330 46 253 0.0 2.0 0.00 0.04 0.00 74 1018.0
20260508065201 46 253 0.0 2.0 0.00 0.04 0.00 74 1017.9
20260508064949 47 253 0.0 2.0 0.00 0.04 0.00 74 1017.9
20260508064846 47 253 0.0 2.0 0.00 0.04 0.00 74 1017.9
20260508064758 47 253 0.0 1.0 0.00 0.04 0.00 74 1017.9
20260508064443 47 253 0.0 1.0 0.00 0.04 0.00 74 1018.1
20260508064341 47 253 0.0 1.0 0.00 0.04 0.00 73 1018.1
20260508064221 47 253 0.0 1.0 0.00 0.04 0.00 73 1018.3
20260508064142 47 253 0.0 1.0 0.00 0.04 0.00 73 1018.1
20260508064039 47 253 0.0 1.0 0.00 0.04 0.00 73 1018.3
20260508063937 47 253 0.0 1.0 0.00 0.04 0.00 73 1018.1
20260508063843 48 253 0.0 1.0 0.00 0.04 0.00 73 1018.1
20260508063721 48 253 0.0 2.0 0.00 0.04 0.00 72 1018.1
20260508063635 48 253 0.0 2.0 0.00 0.04 0.00 72 1018.0
20260508063534 48 253 0.0 2.0 0.00 0.04 0.00 72 1018.0
20260508063431 48 253 0.0 2.0 0.00 0.04 0.00 72 1018.1
20260508063327 48 253 0.0 2.0 0.00 0.04 0.00 72 1018.1
20260508063232 48 253 0.0 2.0 0.00 0.04 0.00 71 1018.1
20260508063028 48 253 0.0 2.0 0.00 0.04 0.00 71 1018.1
20260508062926 48 253 0.0 2.0 0.00 0.04 0.00 70 1018.1
20260508062825 49 253 0.0 2.0 0.00 0.04 0.00 70 1018.0
20260508062728 49 253 0.0 2.0 0.00 0.04 0.00 70 1018.0
20260508062526 49 253 1.0 3.0 0.00 0.04 0.00 69 1018.0
20260508062336 49 253 1.0 3.0 0.00 0.04 0.00 69 1018.0
20260508062225 49 253 1.0 3.0 0.00 0.04 0.00 69 1017.9
20260508062015 49 253 1.0 3.0 0.00 0.04 0.00 69 1017.9
20260508061914 49 253 1.0 3.0 0.00 0.04 0.00 69 1017.9
20260508061807 50 253 1.0 3.0 0.00 0.04 0.00 69 1017.9
20260508061707 50 253 1.0 3.0 0.00 0.04 0.00 69 1018.0
20260508061608 50 22 1.0 3.0 0.00 0.04 0.00 69 1018.0
20260508061508 50 22 1.0 3.0 0.00 0.04 0.00 68 1018.0
20260508061415 50 22 1.0 3.0 0.00 0.04 0.00 68 1017.9
20260508061205 50 22 1.0 2.0 0.00 0.04 0.00 67 1017.9
20260508061107 50 22 0.0 2.0 0.00 0.04 0.00 67 1017.8
20260508061004 51 22 1.0 2.0 0.00 0.04 0.00 66 1017.8
20260508060905 51 22 1.0 2.0 0.00 0.04 0.00 66 1017.7
20260508060709 51 22 1.0 2.0 0.00 0.04 0.00 66 1017.7
20260508060655 51 22 1.0 2.0 0.00 0.04 0.00 66 1017.7
20260508060556 51 22 0.0 2.0 0.00 0.04 0.00 66 1017.8
20260508060455 51 22 0.0 2.0 0.00 0.04 0.00 66 1017.9
20260508060356 51 22 1.0 3.0 0.00 0.04 0.00 66 1017.8
20260508060209 51 22 1.0 4.0 0.00 0.04 0.00 66 1017.9
20260508060150 51 22 1.0 4.0 0.00 0.04 0.00 66 1017.8
20260508060050 52 22 1.0 4.0 0.00 0.04 0.00 66 1017.9
20260508055950 52 22 1.0 4.0 0.00 0.04 0.04 65 1017.8
20260508055848 52 22 2.0 4.0 0.00 0.04 0.04 65 1017.8
20260508055742 52 22 2.0 6.0 0.00 0.04 0.04 65 1017.8
20260508055702 52 22 2.0 6.0 0.00 0.04 0.04 65 1017.8
20260508055649 52 22 3.0 6.0 0.00 0.04 0.04 65 1017.8
20260508055442 52 22 3.0 9.0 0.00 0.04 0.04 65 1018.0
20260508055341 52 22 4.0 15.0 0.00 0.04 0.04 64 1018.1
20260508055239 52 22 4.0 15.0 0.00 0.04 0.04 64 1018.3
20260508055156 52 22 4.0 15.0 0.00 0.04 0.04 64 1018.3
20260508055137 52 22 5.0 15.0 0.00 0.04 0.04 64 1018.3
20260508055037 52 22 5.0 15.0 0.00 0.04 0.04 64 1018.3
20260508054937 52 5 6.0 15.0 0.00 0.04 0.04 64 1018.3
20260508054836 52 10 7.0 15.0 0.00 0.04 0.04 64 1018.3
20260508054731 52 5 7.0 15.0 0.00 0.04 0.04 64 1018.3
20260508054651 52 30 7.0 15.0 0.00 0.04 0.04 64 1018.3
20260508054630 52 38 7.0 15.0 0.00 0.04 0.04 64 1018.3
20260508054529 52 26 7.0 15.0 0.00 0.04 0.04 64 1018.3
20260508054429 52 5 8.0 15.0 0.00 0.04 0.04 64 1018.4
20260508054329 52 51 9.0 15.0 0.00 0.04 0.04 64 1018.4
20260508054224 52 344 9.0 15.0 0.00 0.04 0.04 64 1018.5
20260508054146 52 45 9.0 15.0 0.00 0.04 0.04 64 1018.5
20260508054123 52 5 9.0 15.0 0.00 0.04 0.04 64 1018.5
20260508054024 52 327 9.0 15.0 0.00 0.04 0.04 64 1018.6
20260508053924 52 317 9.0 15.0 0.00 0.04 0.04 65 1018.6
20260508053857 52 355 9.0 15.0 0.00 0.04 0.04 65 1018.7
20260508053625 52 355 8.0 15.0 0.00 0.04 0.04 65 1018.7
20260508053417 52 338 7.0 15.0 0.00 0.04 0.04 66 1018.7
20260508053317 51 315 6.0 13.0 0.00 0.04 0.04 67 1018.7
20260508053211 51 333 6.0 13.0 0.00 0.04 0.04 66 1018.6
20260508053142 51 339 5.0 13.0 0.00 0.04 0.04 66 1018.6
20260508053119 51 327 5.0 13.0 0.00 0.04 0.04 66 1018.6
20260508052921 51 315 4.0 10.0 0.00 0.04 0.04 66 1018.4
20260508052643 51 286 4.0 8.0 0.00 0.04 0.04 66 1017.9
20260508052606 51 269 4.0 8.0 0.00 0.04 0.04 66 1017.9
20260508052505 51 261 4.0 8.0 0.00 0.04 0.04 66 1017.8
20260508052406 51 275 4.0 8.0 0.00 0.04 0.04 67 1017.8
20260508052307 51 296 4.0 8.0 0.00 0.04 0.04 67 1017.7
20260508052159 51 296 4.0 8.0 0.00 0.04 0.04 67 1017.7
20260508052143 51 279 4.0 8.0 0.00 0.04 0.04 67 1017.7
20260508052059 51 280 4.0 8.0 0.00 0.04 0.04 67 1017.7
20260508051959 51 278 4.0 8.0 0.00 0.04 0.04 67 1017.7
20260508051900 51 244 4.0 8.0 0.00 0.04 0.04 67 1017.7
20260508051800 51 253 4.0 8.0 0.00 0.04 0.04 66 1017.8
20260508051641 51 267 3.0 8.0 0.00 0.04 0.04 66 1017.7
20260508051551 51 256 3.0 8.0 0.00 0.04 0.04 66 1017.7
20260508051450 51 239 3.0 6.0 0.00 0.04 0.04 66 1017.7
20260508051349 51 238 3.0 5.0 0.00 0.04 0.04 66 1017.5
20260508051249 51 249 3.0 5.0 0.00 0.04 0.04 65 1017.7
20260508051142 51 228 2.0 5.0 0.00 0.04 0.04 65 1017.7
20260508051052 51 222 2.0 5.0 0.00 0.04 0.04 65 1017.7
20260508050846 52 217 2.0 4.0 0.00 0.04 0.04 65 1017.5
20260508050745 52 217 2.0 4.0 0.00 0.04 0.04 65 1017.5
20260508050642 52 217 1.0 4.0 0.00 0.04 0.04 65 1017.5
20260508050637 52 192 1.0 4.0 0.00 0.04 0.04 65 1017.5
20260508050538 52 223 1.0 4.0 0.00 0.04 0.04 64 1017.5
20260508050438 52 211 1.0 4.0 0.00 0.04 0.04 64 1017.5
20260508050337 52 211 2.0 4.0 0.00 0.04 0.04 64 1017.4
20260508050237 52 210 1.0 4.0 0.00 0.04 0.04 64 1017.4
20260508050138 52 0 2.0 4.0 0.00 0.04 0.04 64 1017.4
20260508050037 52 0 2.0 4.0 0.00 0.04 0.04 64 1017.5
20260508045940 52 0 2.0 4.0 0.00 0.04 0.04 64 1017.5
20260508045732 52 0 2.0 4.0 0.00 0.04 0.04 64 1017.4
20260508045631 52 0 2.0 4.0 0.00 0.04 0.04 64 1017.4
20260508045541 52 0 2.0 4.0 0.00 0.04 0.04 64 1017.3
20260508045226 52 0 2.0 4.0 0.00 0.04 0.04 64 1017.3
20260508045139 52 0 2.0 5.0 0.00 0.04 0.04 64 1017.3
20260508045122 52 0 2.0 5.0 0.00 0.04 0.04 63 1017.3
20260508045019 52 0 2.0 5.0 0.00 0.04 0.04 64 1017.3
20260508044919 52 0 2.0 5.0 0.00 0.04 0.04 64 1017.3
20260508044820 53 21 3.0 5.0 0.00 0.04 0.04 64 1017.3
20260508044745 53 21 3.0 5.0 0.00 0.04 0.04 63 1017.4
20260508044616 53 347 3.0 5.0 0.00 0.04 0.04 64 1017.4
20260508044515 53 355 3.0 5.0 0.00 0.04 0.04 64 1017.4
20260508044415 53 22 2.0 5.0 0.00 0.04 0.04 64 1017.4
20260508044316 53 346 2.0 5.0 0.00 0.04 0.04 63 1017.4
20260508044214 53 342 2.0 5.0 0.00 0.04 0.04 63 1017.4
20260508044135 53 340 2.0 4.0 0.00 0.04 0.04 63 1017.2
20260508044109 53 355 2.0 4.0 0.00 0.04 0.04 63 1017.2
20260508044008 53 27 2.0 4.0 0.00 0.04 0.04 63 1017.2
20260508043907 53 350 2.0 6.0 0.00 0.04 0.04 63 1017.3
20260508043814 53 17 2.0 7.0 0.00 0.04 0.04 63 1017.3
20260508043633 53 15 2.0 7.0 0.00 0.04 0.04 63 1017.4
20260508043609 53 333 2.0 7.0 0.00 0.04 0.04 63 1017.4
20260508043401 53 333 3.0 7.0 0.00 0.04 0.04 62 1017.3
20260508043302 53 87 3.0 8.0 0.00 0.04 0.04 62 1017.3
20260508043238 53 87 4.0 10.0 0.00 0.04 0.04 62 1017.3
20260508043058 53 87 4.0 10.0 0.00 0.04 0.04 61 1017.3
20260508042955 54 87 5.0 10.0 0.00 0.04 0.04 61 1017.3
20260508042856 54 86 5.0 12.0 0.00 0.04 0.04 61 1017.3
20260508042756 54 104 5.0 12.0 0.00 0.04 0.04 61 1017.4
20260508042659 54 98 5.0 12.0 0.00 0.04 0.04 61 1017.4
20260508042453 54 45 6.0 12.0 0.00 0.04 0.04 61 1017.5
20260508042353 54 47 6.0 12.0 0.00 0.04 0.04 60 1017.5
20260508042300 54 53 6.0 12.0 0.00 0.04 0.04 60 1017.5
20260508042129 54 64 6.0 13.0 0.00 0.04 0.04 60 1017.5
20260508042053 54 44 6.0 13.0 0.00 0.04 0.04 60 1017.5
20260508041953 54 51 6.0 13.0 0.00 0.04 0.04 59 1017.5
20260508041853 54 45 6.0 13.0 0.00 0.04 0.04 59 1017.5
20260508041754 54 55 7.0 14.0 0.00 0.04 0.04 58 1017.5
20260508041654 54 58 7.0 14.0 0.00 0.04 0.04 58 1017.5
20260508041629 54 30 7.0 14.0 0.00 0.04 0.04 58 1017.5
20260508041555 54 33 8.0 14.0 0.00 0.04 0.04 57 1017.5
20260508041501 54 46 8.0 14.0 0.00 0.04 0.04 57 1017.7
20260508041301 54 42 8.0 14.0 0.00 0.04 0.04 57 1017.8
20260508041127 55 9 8.0 14.0 0.00 0.04 0.04 57 1017.9
20260508041053 55 345 8.0 14.0 0.00 0.04 0.04 57 1017.9
20260508040953 55 5 8.0 14.0 0.00 0.04 0.04 56 1017.9
20260508040847 55 355 8.0 14.0 0.00 0.04 0.04 56 1017.9
20260508040747 55 50 8.0 14.0 0.00 0.04 0.04 55 1017.8
20260508040648 55 344 8.0 14.0 0.00 0.04 0.04 55 1017.8
20260508040627 55 13 8.0 14.0 0.00 0.04 0.04 55 1017.8
20260508040549 55 26 8.0 14.0 0.00 0.04 0.04 54 1017.7
20260508040448 55 325 8.0 14.0 0.00 0.04 0.04 54 1017.5
20260508040342 55 355 8.0 14.0 0.00 0.04 0.04 54 1017.4
20260508040241 55 19 7.0 14.0 0.00 0.04 0.04 53 1017.3
20260508040141 55 58 6.0 14.0 0.00 0.04 0.04 54 1017.3
20260508040122 55 40 6.0 14.0 0.00 0.04 0.04 54 1017.3
20260508040041 55 24 6.0 12.0 0.00 0.04 0.04 54 1017.2
20260508035941 55 28 5.0 12.0 0.00 0.04 0.04 54 1017.1
20260508035836 55 32 5.0 11.0 0.00 0.04 0.04 54 1017.1
20260508035735 55 38 4.0 11.0 0.00 0.04 0.04 54 1017.0
20260508035635 55 22 4.0 11.0 0.00 0.04 0.04 54 1017.0
20260508035614 55 30 4.0 11.0 0.00 0.04 0.04 54 1017.0
20260508035535 55 19 3.0 11.0 0.00 0.04 0.04 54 1017.0
20260508035436 55 22 3.0 10.0 0.00 0.04 0.04 54 1017.0
20260508035333 55 48 2.0 10.0 0.00 0.04 0.04 53 1016.8
20260508035232 55 33 2.0 6.0 0.00 0.04 0.04 53 1016.8
20260508035110 55 5 2.0 6.0 0.00 0.04 0.04 53 1017.0
20260508035039 55 5 2.0 6.0 0.00 0.04 0.04 53 1016.8
20260508034725 55 37 2.0 6.0 0.00 0.04 0.04 52 1016.8
20260508034623 55 37 2.0 6.0 0.00 0.04 0.04 52 1016.8
20260508034603 55 45 2.0 4.0 0.00 0.04 0.04 52 1016.8
20260508034524 55 34 2.0 4.0 0.00 0.04 0.04 52 1016.8
20260508034424 55 317 2.0 5.0 0.00 0.04 0.04 52 1016.8
20260508034322 55 317 2.0 5.0 0.00 0.04 0.04 52 1016.7
20260508034221 56 317 2.0 6.0 0.00 0.04 0.04 52 1016.7
20260508034131 56 317 2.0 6.0 0.00 0.04 0.04 51 1016.7
20260508034124 56 317 2.0 6.0 0.00 0.04 0.04 51 1016.7
20260508033917 56 317 3.0 6.0 0.00 0.04 0.04 51 1016.7
20260508033815 56 317 3.0 6.0 0.00 0.04 0.04 50 1016.7
20260508033713 56 317 3.0 6.0 0.00 0.04 0.04 50 1016.7
20260508033657 56 316 3.0 6.0 0.00 0.04 0.04 50 1016.6
20260508033513 56 317 3.0 6.0 0.00 0.04 0.04 49 1016.6
20260508033411 56 281 3.0 6.0 0.00 0.04 0.04 49 1016.7
20260508033311 56 301 3.0 6.0 0.00 0.04 0.04 49 1016.6
20260508033215 56 320 3.0 6.0 0.00 0.04 0.04 49 1016.6
20260508033045 56 298 3.0 8.0 0.00 0.04 0.04 49 1016.6
20260508033014 56 298 3.0 8.0 0.00 0.04 0.04 49 1016.6
20260508032759 56 297 4.0 8.0 0.00 0.04 0.04 49 1016.7
20260508032659 56 266 4.0 8.0 0.00 0.04 0.04 49 1016.6
20260508032559 56 266 4.0 9.0 0.00 0.04 0.04 49 1016.6
20260508032538 56 275 4.0 9.0 0.00 0.04 0.04 49 1016.6
20260508032500 56 279 4.0 9.0 0.00 0.04 0.04 49 1016.6
20260508032359 56 275 5.0 9.0 0.00 0.04 0.04 49 1016.6
20260508032256 56 281 5.0 9.0 0.00 0.04 0.04 49 1016.6
20260508032200 56 277 5.0 9.0 0.00 0.04 0.04 49 1016.6
20260508032040 56 306 6.0 10.0 0.00 0.04 0.04 48 1016.5
20260508031953 56 266 6.0 12.0 0.00 0.04 0.04 49 1016.6
20260508031854 56 264 6.0 12.0 0.00 0.04 0.04 49 1016.7
20260508031648 56 250 7.0 12.0 0.00 0.04 0.04 49 1016.7
20260508031548 56 276 7.0 12.0 0.00 0.04 0.04 49 1016.6
20260508031540 56 282 7.0 12.0 0.00 0.04 0.04 49 1016.6
20260508031447 56 265 7.0 12.0 0.00 0.04 0.04 49 1016.7
20260508031347 56 273 7.0 12.0 0.00 0.04 0.04 49 1016.7
20260508031241 56 248 8.0 12.0 0.00 0.04 0.04 50 1016.7
20260508031153 56 288 8.0 12.0 0.00 0.04 0.04 49 1016.7
20260508031041 56 273 8.0 12.0 0.00 0.04 0.04 49 1016.7
20260508030949 56 295 8.0 12.0 0.00 0.04 0.04 50 1016.7
20260508030735 56 258 8.0 12.0 0.00 0.04 0.04 50 1016.6
20260508030635 56 238 7.0 12.0 0.00 0.04 0.04 50 1016.6
20260508030539 56 240 7.0 12.0 0.00 0.04 0.04 50 1016.6
20260508030535 56 275 7.0 12.0 0.00 0.04 0.04 50 1016.6
20260508030435 56 279 6.0 11.0 0.00 0.04 0.04 50 1016.5
20260508030335 56 244 5.0 11.0 0.00 0.04 0.04 49 1016.5
20260508030230 56 263 5.0 11.0 0.00 0.04 0.04 50 1016.5
20260508030140 56 247 4.0 11.0 0.00 0.04 0.04 49 1016.5
20260508030133 56 217 4.0 11.0 0.00 0.04 0.04 49 1016.6
20260508025929 56 238 4.0 10.0 0.00 0.04 0.04 49 1016.6
20260508025829 56 254 3.0 10.0 0.00 0.04 0.04 49 1016.6
20260508025725 56 232 3.0 7.0 0.00 0.04 0.04 49 1016.5
20260508025623 56 281 3.0 6.0 0.00 0.04 0.04 48 1016.6
20260508025538 56 256 3.0 6.0 0.00 0.04 0.04 49 1016.6
20260508025523 56 266 3.0 6.0 0.00 0.04 0.04 49 1016.6
20260508025423 56 279 3.0 6.0 0.00 0.04 0.04 48 1016.5
20260508025320 57 279 4.0 11.0 0.00 0.04 0.04 48 1016.5
20260508025218 57 252 4.0 13.0 0.00 0.04 0.04 48 1016.5
20260508025127 57 248 4.0 13.0 0.00 0.04 0.04 48 1016.5
20260508025120 57 254 5.0 13.0 0.00 0.04 0.04 48 1016.5
20260508024915 57 265 5.0 13.0 0.00 0.04 0.04 47 1016.6
20260508024813 57 294 5.0 13.0 0.00 0.04 0.04 47 1016.6
20260508024709 57 294 6.0 13.0 0.00 0.04 0.04 47 1016.5
20260508024610 57 259 6.0 13.0 0.00 0.04 0.04 48 1016.5
20260508024539 57 268 7.0 13.0 0.00 0.04 0.04 47 1016.6
20260508024516 57 234 7.0 13.0 0.00 0.04 0.04 47 1016.6
20260508024310 57 243 7.0 13.0 0.00 0.04 0.04 46 1016.6
20260508024210 57 263 7.0 13.0 0.00 0.04 0.04 46 1016.5
20260508024109 57 272 7.0 13.0 0.00 0.04 0.04 47 1016.5
20260508024038 57 273 8.0 13.0 0.00 0.04 0.04 47 1016.4
20260508024009 57 250 8.0 14.0 0.00 0.04 0.04 47 1016.4
20260508023942 57 259 8.0 17.0 0.00 0.04 0.04 47 1016.4
20260508023722 57 245 10.0 19.0 0.00 0.04 0.04 48 1016.4
20260508023409 57 246 9.0 19.0 0.00 0.04 0.04 47 1016.4
20260508023309 57 270 9.0 19.0 0.00 0.04 0.04 48 1016.4
20260508023209 57 244 9.0 19.0 0.00 0.04 0.04 48 1016.4
20260508023111 57 275 8.0 19.0 0.00 0.04 0.04 48 1016.4
20260508023040 57 249 8.0 19.0 0.00 0.04 0.04 48 1016.4
20260508023003 57 267 8.0 19.0 0.00 0.04 0.04 47 1016.4
20260508022903 57 256 7.0 19.0 0.00 0.04 0.04 47 1016.4
20260508022803 57 263 5.0 15.0 0.00 0.04 0.04 47 1016.2
20260508022703 57 254 5.0 15.0 0.00 0.04 0.04 46 1016.2
20260508022604 57 265 4.0 11.0 0.00 0.04 0.04 47 1016.4
20260508022539 57 225 4.0 11.0 0.00 0.04 0.04 47 1016.2
20260508022512 57 255 4.0 9.0 0.00 0.04 0.04 46 1016.2
20260508022206 56 203 3.0 7.0 0.00 0.04 0.04 48 1016.2
20260508022039 57 227 3.0 7.0 0.00 0.04 0.04 49 1016.2
20260508022000 57 200 3.0 7.0 0.00 0.04 0.04 49 1016.2
20260508021907 57 217 3.0 7.0 0.00 0.04 0.04 50 1016.2
20260508021659 56 315 4.0 7.0 0.00 0.04 0.04 48 1016.4
20260508021559 56 286 4.0 8.0 0.00 0.04 0.04 50 1016.4
20260508021539 56 348 4.0 8.0 0.00 0.04 0.04 50 1016.5
20260508021457 57 228 4.0 8.0 0.00 0.04 0.04 50 1016.5
20260508021357 57 268 3.0 8.0 0.00 0.04 0.04 50 1016.6
20260508021253 57 231 3.0 8.0 0.00 0.04 0.04 50 1016.6
20260508021151 57 232 3.0 8.0 0.00 0.04 0.04 50 1016.6
20260508021051 57 221 3.0 8.0 0.00 0.04 0.04 51 1016.6
20260508021039 57 238 3.0 8.0 0.00 0.04 0.04 51 1016.6
20260508020952 57 219 2.0 8.0 0.00 0.04 0.04 51 1016.6
20260508020849 57 230 2.0 8.0 0.00 0.04 0.04 52 1016.6
20260508020746 57 240 2.0 8.0 0.00 0.04 0.04 51 1016.6
20260508020652 57 272 2.0 7.0 0.00 0.04 0.04 51 1016.5
20260508020539 57 244 2.0 4.0 0.00 0.04 0.04 50 1016.5
20260508020445 57 350 2.0 5.0 0.00 0.04 0.04 50 1016.4
20260508020345 57 350 2.0 5.0 0.00 0.04 0.04 50 1016.2
20260508020245 57 350 2.0 5.0 0.00 0.04 0.04 50 1016.2
20260508020146 57 350 2.0 5.0 0.00 0.04 0.04 49 1016.1
20260508020039 57 350 3.0 5.0 0.00 0.04 0.04 49 1016.1
20260508015947 57 350 3.0 5.0 0.00 0.04 0.04 50 1016.1
20260508015846 57 350 3.0 6.0 0.00 0.04 0.04 50 1016.0
20260508015744 57 350 3.0 8.0 0.00 0.04 0.04 50 1016.1
20260508015644 58 350 4.0 8.0 0.00 0.04 0.04 50 1016.1
20260508015541 58 350 4.0 11.0 0.00 0.04 0.04 50 1016.0
20260508015442 58 350 4.0 11.0 0.00 0.04 0.04 49 1016.0
20260508015342 58 350 5.0 13.0 0.00 0.04 0.04 49 1016.0
20260508015242 58 350 5.0 13.0 0.00 0.04 0.04 49 1016.0
20260508015153 58 9 5.0 13.0 0.00 0.04 0.04 49 1016.0
20260508015041 58 11 6.0 13.0 0.00 0.04 0.04 48 1016.0
20260508014941 58 5 6.0 13.0 0.00 0.04 0.04 50 1016.0
20260508014843 58 355 6.0 13.0 0.00 0.04 0.04 48 1015.9
20260508014746 58 18 6.0 13.0 0.00 0.04 0.04 47 1015.9
20260508014540 59 28 7.0 13.0 0.00 0.04 0.04 47 1015.8
20260508014440 59 24 6.0 13.0 0.00 0.04 0.04 45 1015.6
20260508014337 59 25 6.0 13.0 0.00 0.04 0.04 45 1015.8
20260508014237 59 5 6.0 13.0 0.00 0.04 0.04 46 1015.8
20260508014149 59 32 6.0 13.0 0.00 0.04 0.04 47 1015.8
20260508014038 59 47 6.0 13.0 0.00 0.04 0.04 48 1015.8
20260508013944 60 47 6.0 13.0 0.00 0.04 0.04 47 1015.8
20260508013735 60 306 5.0 13.0 0.00 0.04 0.04 46 1015.6
20260508013635 60 26 4.0 13.0 0.00 0.04 0.04 47 1015.6
20260508013542 60 59 4.0 9.0 0.00 0.04 0.04 45 1015.6
20260508013358 60 87 3.0 9.0 0.00 0.04 0.04 44 1015.5
20260508013032 60 87 1.0 8.0 0.00 0.04 0.04 44 1015.5
20260508012932 60 113 1.0 6.0 0.00 0.04 0.04 41 1015.5
20260508012839 60 116 0.0 3.0 0.00 0.04 0.04 40 1015.5
20260508012632 60 175 0.0 2.0 0.00 0.04 0.04 39 1015.4
20260508012536 60 175 0.0 1.0 0.00 0.04 0.04 39 1015.4
20260508012531 60 175 0.0 1.0 0.00 0.04 0.04 38 1015.4
20260508012432 60 175 0.0 1.0 0.00 0.04 0.04 38 1015.4
20260508012332 60 175 0.0 1.0 0.00 0.04 0.04 38 1015.4
20260508012231 60 175 0.0 1.0 0.00 0.04 0.04 39 1015.4
20260508012130 60 175 0.0 2.0 0.00 0.04 0.04 38 1015.3
20260508012036 60 175 0.0 2.0 0.00 0.04 0.04 38 1015.3
20260508012030 61 175 0.0 2.0 0.00 0.04 0.04 38 1015.3
20260508011931 61 175 0.0 2.0 0.00 0.04 0.04 38 1015.3
20260508011829 61 175 0.0 2.0 0.00 0.04 0.04 38 1015.3
20260508011735 61 329 1.0 2.0 0.00 0.04 0.04 38 1015.2
20260508011534 61 340 1.0 2.0 0.00 0.04 0.04 37 1015.2
20260508011329 61 338 1.0 2.0 0.00 0.04 0.04 37 1015.2
20260508011227 61 315 1.0 2.0 0.00 0.04 0.04 36 1015.2
20260508011153 61 129 1.0 3.0 0.00 0.04 0.04 36 1015.2
20260508011041 61 129 1.0 3.0 0.00 0.04 0.04 36 1015.1
20260508010727 62 129 1.0 3.0 0.00 0.04 0.04 36 1015.2
20260508010627 62 129 1.0 3.0 0.00 0.04 0.04 36 1015.2
20260508010527 62 129 1.0 3.0 0.00 0.04 0.04 36 1015.2
20260508010428 62 129 1.0 3.0 0.00 0.04 0.04 36 1015.1
20260508010327 62 129 1.0 3.0 0.00 0.04 0.04 36 1015.2
20260508010228 62 129 1.0 3.0 0.00 0.04 0.04 36 1015.1
20260508010128 62 129 1.0 3.0 0.00 0.04 0.04 36 1015.1
20260508010023 62 129 1.0 3.0 0.00 0.04 0.04 36 1014.9
20260508005923 62 129 1.0 4.0 0.00 0.04 0.04 36 1015.1
20260508005823 62 129 1.0 4.0 0.00 0.04 0.04 36 1014.9
20260508005723 62 129 1.0 4.0 0.00 0.04 0.04 36 1015.1
20260508005645 62 129 1.0 4.0 0.00 0.04 0.04 35 1014.9
20260508005523 62 129 1.0 4.0 0.00 0.04 0.04 35 1014.9
20260508005423 62 129 1.0 4.0 0.00 0.04 0.04 35 1014.9
20260508005324 62 129 2.0 4.0 0.00 0.04 0.04 35 1014.9
20260508005225 62 129 2.0 4.0 0.00 0.04 0.04 35 1014.9
20260508005143 63 129 2.0 4.0 0.00 0.04 0.04 35 1014.8
20260508005136 63 129 2.0 4.0 0.00 0.04 0.04 35 1014.8
20260508004823 63 129 2.0 5.0 0.00 0.04 0.04 35 1014.8
20260508004724 63 129 2.0 5.0 0.00 0.04 0.04 35 1014.8
20260508004624 63 129 2.0 5.0 0.00 0.04 0.04 34 1014.8
20260508004523 63 129 2.0 5.0 0.00 0.04 0.04 34 1014.8
20260508004424 63 129 2.0 5.0 0.00 0.04 0.04 34 1014.7
20260508004323 63 129 2.0 5.0 0.00 0.04 0.04 34 1014.8
20260508004224 63 129 1.0 5.0 0.00 0.04 0.04 33 1014.7
20260508004119 63 125 1.0 5.0 0.00 0.04 0.04 33 1014.8
20260508004037 63 152 1.0 5.0 0.00 0.04 0.04 34 1014.8
20260508004027 63 152 1.0 5.0 0.00 0.04 0.04 33 1014.8
20260508003820 63 152 0.0 3.0 0.00 0.04 0.04 33 1014.8
20260508003719 63 152 0.0 2.0 0.00 0.04 0.04 33 1014.8
20260508003632 64 152 0.0 2.0 0.00 0.04 0.04 33 1014.7
20260508003626 64 152 0.0 2.0 0.00 0.04 0.04 33 1014.7
20260508003419 64 152 0.0 2.0 0.00 0.04 0.04 33 1014.7
20260508003334 64 152 0.0 2.0 0.00 0.04 0.04 32 1014.7
20260508003019 64 152 0.0 2.0 0.00 0.04 0.04 32 1014.6
20260508002920 64 152 0.0 3.0 0.00 0.04 0.04 33 1014.7
20260508002819 64 152 1.0 3.0 0.00 0.04 0.04 33 1014.6
20260508002727 64 152 1.0 6.0 0.00 0.04 0.04 32 1014.6
20260508002519 64 152 1.0 6.0 0.00 0.04 0.04 32 1014.7
20260508002419 64 152 1.0 6.0 0.00 0.04 0.04 32 1014.6
20260508002319 64 152 2.0 6.0 0.00 0.04 0.04 32 1014.6
20260508002215 64 152 2.0 6.0 0.00 0.04 0.04 32 1014.6
20260508002115 64 152 2.0 6.0 0.00 0.04 0.04 32 1014.6
20260508002016 64 152 2.0 6.0 0.00 0.04 0.04 32 1014.6
20260508001922 64 158 2.0 6.0 0.00 0.04 0.04 32 1014.6
20260508001716 64 148 2.0 5.0 0.00 0.04 0.04 31 1014.7
20260508001616 64 135 2.0 4.0 0.00 0.04 0.04 31 1014.7
20260508001532 65 135 1.0 4.0 0.00 0.05 0.04 31 1014.6
20260508001515 65 135 1.0 4.0 0.00 0.05 0.04 30 1014.6
20260508001415 65 135 1.0 4.0 0.00 0.05 0.04 30 1014.7
20260508001315 65 135 1.0 4.0 0.00 0.05 0.04 30 1014.6
20260508001215 65 132 1.0 4.0 0.00 0.05 0.04 29 1014.7
20260508001115 65 132 1.0 4.0 0.00 0.05 0.04 29 1014.7
20260508001015 65 115 1.0 4.0 0.00 0.05 0.04 29 1014.7
20260508000915 65 329 0.0 3.0 0.00 0.05 0.04 28 1014.7
20260508000815 65 329 0.0 2.0 0.00 0.05 0.04 28 1014.6
20260508000734 65 329 0.0 1.0 0.00 0.05 0.04 28 1014.7
20260508000728 65 329 0.0 1.0 0.00 0.05 0.04 28 1014.7
20260508000419 65 329 0.0 1.0 0.00 0.05 0.04 28 1014.7
20260508000219 65 329 0.0 1.0 0.00 0.05 0.04 28 1014.8
20260508000019 65 329 0.0 1.0 0.00 0.05 0.04 28 1014.8
20260507235811 65 329 0.0 1.0 0.00 0.05 0.04 28 1014.7
20260507235711 65 329 0.0 3.0 0.00 0.05 0.04 29 1014.7
20260507235612 65 329 0.0 3.0 0.00 0.05 0.04 29 1014.7
20260507235510 65 329 1.0 3.0 0.00 0.05 0.04 29 1014.7
20260507235418 65 329 1.0 3.0 0.00 0.05 0.04 29 1014.7
20260507235211 66 329 1.0 3.0 0.00 0.05 0.04 29 1014.7
20260507235112 66 329 1.0 3.0 0.00 0.05 0.04 30 1014.7
20260507235011 66 329 1.0 3.0 0.00 0.05 0.04 29 1014.7
20260507234911 66 329 1.0 3.0 0.00 0.05 0.04 29 1014.7
20260507234811 66 329 1.0 3.0 0.00 0.05 0.04 29 1014.7
20260507234711 66 329 1.0 3.0 0.00 0.05 0.04 28 1014.7
20260507234634 66 329 1.0 3.0 0.00 0.05 0.04 28 1014.7
20260507234513 66 329 1.0 3.0 0.00 0.05 0.04 27 1014.7
20260507234416 66 329 1.0 3.0 0.00 0.05 0.04 28 1014.6
20260507234209 67 329 0.0 3.0 0.00 0.05 0.04 28 1014.7
20260507234119 67 329 1.0 3.0 0.00 0.05 0.04 29 1014.6
20260507234112 67 329 1.0 3.0 0.00 0.05 0.04 28 1014.6
20260507233904 67 329 1.0 3.0 0.00 0.05 0.04 27 1014.5
20260507233803 67 329 1.0 3.0 0.00 0.05 0.04 28 1014.6
20260507233703 67 329 1.0 4.0 0.00 0.05 0.04 29 1014.6
20260507233600 67 329 1.0 4.0 0.00 0.06 0.04 29 1014.6
20260507233529 67 329 1.0 4.0 0.00 0.06 0.04 29 1014.6
20260507233459 67 329 2.0 4.0 0.00 0.06 0.04 27 1014.6
20260507233355 67 329 2.0 4.0 0.00 0.06 0.04 27 1014.6
20260507233255 67 329 2.0 4.0 0.00 0.06 0.04 27 1014.5
20260507233156 67 329 2.0 4.0 0.00 0.06 0.04 26 1014.6
20260507233101 67 329 2.0 4.0 0.00 0.06 0.04 26 1014.6
20260507232855 68 329 2.0 4.0 0.00 0.06 0.04 26 1014.6
20260507232755 68 329 2.0 4.0 0.00 0.06 0.04 27 1014.6
20260507232653 68 319 2.0 4.0 0.00 0.06 0.04 26 1014.6
20260507232633 68 319 2.0 4.0 0.00 0.06 0.04 27 1014.7
20260507232453 68 317 2.0 4.0 0.00 0.06 0.04 26 1014.7
20260507232353 68 0 2.0 4.0 0.00 0.06 0.04 27 1014.7
20260507232252 69 0 2.0 4.0 0.00 0.06 0.04 26 1014.7
20260507232154 69 0 2.0 4.0 0.00 0.06 0.04 27 1014.7
20260507232025 69 301 2.0 4.0 0.00 0.06 0.04 26 1014.7
20260507231953 69 277 2.0 4.0 0.00 0.06 0.04 26 1014.7
20260507231853 69 277 2.0 4.0 0.00 0.06 0.04 26 1014.6
20260507231752 69 277 2.0 4.0 0.00 0.06 0.04 26 1014.7
20260507231650 69 277 2.0 4.0 0.00 0.06 0.04 25 1014.7
20260507231526 69 355 2.0 4.0 0.00 0.06 0.04 27 1014.7
20260507231447 69 355 2.0 4.0 0.00 0.06 0.04 26 1014.7
20260507231353 69 355 2.0 4.0 0.00 0.06 0.04 26 1014.7
20260507231141 69 318 1.0 4.0 0.00 0.07 0.04 27 1014.7
20260507231041 69 280 1.0 4.0 0.00 0.07 0.04 26 1014.7
20260507231023 69 282 1.0 4.0 0.00 0.07 0.04 27 1014.7
20260507230941 69 259 1.0 4.0 0.00 0.07 0.04 26 1014.7
20260507230841 69 259 1.0 4.0 0.00 0.07 0.04 27 1014.7
20260507230740 69 259 1.0 4.0 0.00 0.07 0.04 27 1014.8
20260507230638 68 259 1.0 4.0 0.00 0.07 0.04 26 1014.7
20260507230520 68 259 1.0 4.0 0.00 0.07 0.04 26 1014.7
20260507230436 68 259 2.0 5.0 0.00 0.07 0.04 26 1014.8
20260507230335 68 259 2.0 5.0 0.00 0.07 0.04 26 1014.7
20260507230233 68 259 2.0 5.0 0.00 0.07 0.04 26 1014.8
20260507230126 68 259 2.0 5.0 0.00 0.07 0.04 25 1014.8
20260507230029 68 259 3.0 5.0 0.00 0.07 0.04 26 1014.8
20260507225825 68 259 3.0 5.0 0.00 0.08 0.04 26 1014.7
20260507225722 68 259 3.0 5.0 0.00 0.08 0.04 28 1014.8
20260507225623 68 259 3.0 5.0 0.00 0.08 0.04 27 1014.8
20260507225533 68 306 3.0 5.0 0.00 0.08 0.04 27 1014.8
20260507225216 68 257 3.0 5.0 0.00 0.08 0.04 28 1014.8
20260507225118 68 309 2.0 5.0 0.00 0.08 0.04 26 1014.8
20260507225017 68 346 2.0 5.0 0.00 0.08 0.04 26 1014.8
20260507224917 68 305 2.0 5.0 0.00 0.09 0.04 27 1014.8
20260507224818 69 0 2.0 5.0 0.00 0.09 0.04 25 1014.8
20260507224717 69 60 2.0 5.0 0.00 0.09 0.04 25 1014.8
20260507224614 69 60 2.0 5.0 0.00 0.09 0.04 26 1014.8
20260507224518 69 46 2.0 5.0 0.00 0.09 0.04 26 1014.8
20260507224317 69 344 2.0 6.0 0.00 0.10 0.04 27 1014.8
20260507224056 69 344 3.0 8.0 0.00 0.10 0.04 26 1014.8
20260507224016 69 318 3.0 8.0 0.00 0.10 0.04 27 1014.9
20260507223955 69 318 3.0 8.0 0.00 0.10 0.04 27 1014.9
20260507223856 69 318 3.0 8.0 0.00 0.10 0.04 27 1014.8
20260507223755 69 318 3.0 8.0 0.00 0.11 0.04 26 1014.9
20260507223655 69 263 3.0 8.0 0.00 0.11 0.04 28 1014.9
20260507223549 69 252 3.0 8.0 0.00 0.11 0.04 26 1014.9
20260507223510 69 266 3.0 8.0 0.00 0.11 0.04 28 1014.9
20260507223449 69 313 2.0 8.0 0.00 0.11 0.04 28 1014.9
20260507223349 69 322 2.0 8.0 0.00 0.12 0.04 28 1014.9
20260507223250 69 0 2.0 8.0 0.00 0.12 0.04 27 1014.9
20260507223149 69 61 2.0 5.0 0.00 0.12 0.04 26 1014.9
20260507223111 69 30 2.0 5.0 0.00 0.12 0.04 26 1014.9
20260507222958 69 30 2.0 7.0 0.00 0.13 0.04 24 1014.9
20260507222642 69 249 3.0 7.0 0.00 0.13 0.04 26 1015.1
20260507222606 69 249 4.0 9.0 0.00 0.14 0.04 27 1015.1
20260507222438 69 249 4.0 9.0 0.00 0.14 0.04 29 1015.1
20260507222338 69 249 4.0 9.0 0.00 0.14 0.04 25 1015.1
20260507222244 69 296 4.0 9.0 0.00 0.14 0.04 26 1015.1
20260507222034 69 311 4.0 9.0 0.00 0.14 0.04 26 1015.1
20260507221952 69 302 4.0 9.0 0.00 0.15 0.04 27 1015.1
20260507221933 69 5 3.0 9.0 0.00 0.15 0.04 27 1015.1
20260507221833 69 301 3.0 9.0 0.00 0.15 0.04 26 1015.1
20260507221732 69 311 3.0 9.0 0.00 0.15 0.04 27 1015.1
20260507221630 69 342 3.0 9.0 0.00 0.16 0.04 26 1015.1
20260507221559 69 324 3.0 9.0 0.00 0.16 0.04 27 1015.2
20260507221431 69 355 3.0 6.0 0.00 0.16 0.04 24 1015.2
20260507221225 69 355 3.0 8.0 0.00 0.17 0.04 25 1015.2
20260507221125 70 320 3.0 8.0 0.00 0.17 0.04 26 1015.2
20260507221026 70 287 3.0 8.0 0.00 0.17 0.04 27 1015.2
20260507220952 70 286 3.0 8.0 0.00 0.17 0.04 28 1015.2
20260507220923 70 348 3.0 8.0 0.00 0.17 0.04 28 1015.3
20260507220823 70 24 3.0 8.0 0.00 0.17 0.04 27 1015.2
20260507220723 70 333 3.0 8.0 0.00 0.18 0.04 27 1015.3
20260507220648 70 293 3.0 8.0 0.00 0.18 0.04 27 1015.3
20260507220533 70 321 3.0 8.0 0.00 0.18 0.04 26 1015.3
20260507220227 71 312 3.0 8.0 0.00 0.19 0.04 25 1015.3
20260507220059 71 173 3.0 8.0 0.00 0.19 0.04 25 1015.2
20260507215916 71 165 3.0 8.0 0.00 0.19 0.04 24 1015.3
20260507215824 71 240 4.0 11.0 0.00 0.19 0.04 25 1015.3
20260507215625 71 278 4.0 11.0 0.00 0.19 0.04 28 1015.4
20260507215453 70 229 4.0 11.0 0.00 0.20 0.04 25 1015.4
20260507215415 70 254 4.0 11.0 0.00 0.20 0.04 29 1015.4
20260507215315 70 269 4.0 11.0 0.00 0.20 0.04 29 1015.3
20260507215215 70 175 5.0 11.0 0.00 0.20 0.04 28 1015.3
20260507215114 70 214 5.0 12.0 0.00 0.21 0.04 28 1015.3
20260507215026 70 238 6.0 14.0 0.00 0.21 0.04 28 1015.4
20260507215018 69 249 6.0 14.0 0.00 0.21 0.04 28 1015.4
20260507214816 69 296 6.0 14.0 0.00 0.21 0.04 28 1015.5
20260507214607 69 278 7.0 14.0 0.00 0.22 0.04 26 1015.5
20260507214507 69 340 7.0 14.0 0.00 0.22 0.04 28 1015.5
20260507214450 69 290 7.0 14.0 0.00 0.22 0.04 28 1015.6
20260507214409 69 336 7.0 14.0 0.00 0.22 0.04 25 1015.6
20260507214200 70 284 8.0 14.0 0.00 0.23 0.04 25 1015.6
20260507214102 70 329 8.0 14.0 0.00 0.23 0.04 26 1015.6
20260507214001 70 321 8.0 11.0 0.00 0.23 0.04 27 1015.6
20260507213950 70 305 8.0 11.0 0.00 0.23 0.04 27 1015.6
20260507213900 70 250 8.0 11.0 0.00 0.23 0.04 27 1015.6
20260507213755 69 252 8.0 14.0 0.00 0.24 0.04 27 1015.6
20260507213655 69 235 8.0 14.0 0.00 0.24 0.04 27 1015.6
20260507213604 69 285 8.0 14.0 0.00 0.24 0.04 28 1015.6
20260507213450 69 269 8.0 14.0 0.00 0.24 0.04 27 1015.6
20260507213354 69 273 8.0 14.0 0.00 0.24 0.04 27 1015.8
20260507213256 69 310 7.0 14.0 0.00 0.25 0.04 27 1015.8
20260507213049 68 281 8.0 14.0 0.00 0.25 0.04 27 1015.9
20260507213002 68 261 7.0 14.0 0.00 0.25 0.04 27 1015.9
20260507212957 68 238 7.0 14.0 0.00 0.25 0.04 26 1015.9
20260507212643 68 327 7.0 14.0 0.00 0.26 0.04 27 1015.9
20260507212557 68 280 7.0 14.0 0.00 0.26 0.04 28 1016.0
20260507212444 68 275 6.0 14.0 0.00 0.27 0.04 27 1015.9
20260507212342 68 272 6.0 14.0 0.00 0.27 0.04 28 1016.0
20260507212239 67 264 6.0 14.0 0.00 0.27 0.04 27 1016.0
20260507212144 67 284 5.0 14.0 0.00 0.28 0.04 28 1016.1
20260507211950 67 231 4.0 12.0 0.00 0.28 0.04 28 1016.1
20260507211937 67 260 4.0 12.0 0.00 0.28 0.04 28 1016.0
20260507211837 67 287 4.0 11.0 0.00 0.29 0.04 29 1016.1
20260507211632 67 223 4.0 9.0 0.00 0.29 0.04 30 1016.1
20260507211548 67 265 4.0 9.0 0.00 0.29 0.04 30 1016.1
20260507211542 66 45 4.0 9.0 0.00 0.29 0.04 31 1016.1
20260507211227 66 63 4.0 9.0 0.00 0.29 0.04 30 1016.2
20260507211125 66 85 4.0 9.0 0.00 0.29 0.04 29 1016.1
20260507211025 66 75 4.0 9.0 0.00 0.29 0.04 29 1016.1
20260507210950 66 75 4.0 9.0 0.00 0.29 0.04 30 1016.1
20260507210925 65 59 4.0 9.0 0.00 0.29 0.04 30 1016.2
20260507210832 65 45 3.0 9.0 0.00 0.30 0.04 30 1016.2
20260507210519 65 294 3.0 6.0 0.00 0.30 0.04 29 1016.4
20260507210450 65 290 3.0 6.0 0.00 0.30 0.04 30 1016.4
20260507210420 65 325 3.0 6.0 0.00 0.31 0.04 30 1016.4
20260507210317 65 301 2.0 6.0 0.00 0.31 0.04 33 1016.4
20260507210211 64 321 2.0 6.0 0.00 0.31 0.04 32 1016.4
20260507210111 64 32 2.0 6.0 0.00 0.31 0.04 32 1016.4
20260507210011 64 318 2.0 5.0 0.00 0.32 0.04 30 1016.4
20260507205950 64 297 2.0 5.0 0.00 0.32 0.04 29 1016.4
20260507205911 64 22 2.0 5.0 0.00 0.32 0.04 29 1016.4
20260507205810 64 22 2.0 5.0 0.00 0.32 0.04 31 1016.4
20260507205722 64 5 2.0 5.0 0.00 0.32 0.04 31 1016.4
20260507205444 64 318 2.0 8.0 0.00 0.33 0.04 32 1016.4
20260507205407 64 318 2.0 8.0 0.00 0.33 0.04 32 1016.4
20260507205306 64 323 3.0 8.0 0.00 0.33 0.04 32 1016.5
20260507205205 64 288 3.0 8.0 0.00 0.33 0.04 32 1016.5
20260507205103 64 288 3.0 8.0 0.00 0.33 0.04 32 1016.5
20260507205003 64 288 3.0 8.0 0.00 0.34 0.04 31 1016.5
20260507204937 64 308 3.0 8.0 0.00 0.34 0.04 31 1016.5
20260507204901 64 355 3.0 8.0 0.00 0.34 0.04 31 1016.5
20260507204758 64 5 3.0 8.0 0.00 0.34 0.04 31 1016.6
20260507204653 64 11 3.0 8.0 0.00 0.34 0.04 34 1016.6
20260507204559 64 322 3.0 8.0 0.00 0.34 0.04 32 1016.7
20260507204431 64 336 3.0 8.0 0.00 0.35 0.04 33 1016.6
20260507204353 64 323 3.0 8.0 0.00 0.35 0.04 30 1016.6
20260507204301 64 315 3.0 8.0 0.00 0.35 0.04 32 1016.6
20260507204006 64 338 3.0 8.0 0.00 0.35 0.04 32 1016.6
20260507203959 64 329 3.0 8.0 0.00 0.35 0.04 32 1016.6
20260507203633 64 5 3.0 6.0 0.00 0.36 0.04 33 1016.6
20260507203341 64 299 3.0 6.0 0.00 0.36 0.04 31 1016.7
20260507203245 64 342 3.0 6.0 0.00 0.36 0.04 30 1016.7
20260507203056 64 302 4.0 9.0 0.00 0.36 0.04 32 1016.7
20260507202942 64 337 4.0 9.0 0.00 0.37 0.04 31 1016.8
20260507202734 64 345 4.0 10.0 0.00 0.37 0.04 30 1016.7
20260507202631 64 296 5.0 10.0 0.00 0.37 0.04 30 1016.7
20260507202538 64 309 5.0 10.0 0.00 0.37 0.04 31 1016.7
20260507202407 64 312 6.0 10.0 0.00 0.37 0.04 32 1016.7
20260507202328 64 318 6.0 11.0 0.00 0.37 0.04 32 1016.8
20260507202228 64 311 6.0 11.0 0.00 0.37 0.04 30 1016.8
20260507202123 64 288 6.0 11.0 0.00 0.37 0.04 32 1016.8
20260507202023 64 350 6.0 13.0 0.00 0.37 0.04 31 1017.0
20260507201923 64 343 7.0 13.0 0.00 0.37 0.04 31 1017.1
20260507201902 64 336 7.0 13.0 0.00 0.37 0.04 31 1017.1
20260507201822 65 300 7.0 13.0 0.00 0.37 0.04 30 1017.0
20260507201724 65 324 7.0 13.0 0.00 0.37 0.04 30 1017.0
20260507201624 65 317 7.0 13.0 0.00 0.37 0.04 30 1017.0
20260507201418 65 317 6.0 13.0 0.00 0.37 0.04 30 1017.0
20260507201356 65 328 6.0 13.0 0.00 0.37 0.04 30 1017.1
20260507201317 65 271 6.0 13.0 0.00 0.37 0.04 29 1017.1
20260507201219 65 315 6.0 13.0 0.00 0.37 0.04 31 1017.0
20260507201011 66 335 6.0 13.0 0.00 0.38 0.04 29 1017.0
20260507200923 66 342 7.0 13.0 0.00 0.38 0.04 29 1017.1
20260507200916 66 292 7.0 14.0 0.00 0.38 0.04 29 1017.1
20260507200710 66 10 7.0 15.0 0.00 0.38 0.04 29 1017.1
20260507200604 67 295 7.0 15.0 0.00 0.38 0.04 28 1017.1
20260507200532 67 329 7.0 15.0 0.00 0.38 0.04 28 1017.1
20260507200417 67 5 7.0 15.0 0.00 0.38 0.04 28 1017.1
20260507200058 68 272 7.0 15.0 0.00 0.39 0.04 30 1017.2
20260507195959 68 294 7.0 15.0 0.00 0.39 0.04 28 1017.2
20260507195859 68 311 7.0 15.0 0.00 0.39 0.04 31 1017.2
20260507195838 68 313 7.0 15.0 0.00 0.39 0.04 31 1017.2
20260507195800 68 319 7.0 15.0 0.00 0.39 0.04 34 1017.2
20260507195701 68 259 8.0 15.0 0.00 0.39 0.04 30 1017.2
20260507195452 67 253 9.0 20.0 0.00 0.39 0.04 31 1017.2
20260507195353 67 309 9.0 20.0 0.00 0.39 0.04 31 1017.2
20260507195331 68 311 9.0 20.0 0.00 0.39 0.04 31 1017.2
20260507195252 67 296 9.0 20.0 0.00 0.40 0.04 31 1017.2
20260507195153 67 293 9.0 20.0 0.00 0.40 0.04 33 1017.2
20260507195047 67 194 9.0 20.0 0.00 0.40 0.04 33 1017.2
20260507194947 67 247 9.0 20.0 0.00 0.40 0.04 33 1017.3
20260507194848 67 298 9.0 20.0 0.00 0.40 0.04 33 1017.3
20260507194827 67 313 9.0 20.0 0.00 0.40 0.04 33 1017.3
20260507194746 67 246 10.0 20.0 0.00 0.40 0.04 32 1017.3
20260507194647 66 269 10.0 20.0 0.00 0.40 0.04 31 1017.3
20260507194541 66 222 9.0 20.0 0.00 0.40 0.04 31 1017.3
20260507194441 66 245 10.0 18.0 0.00 0.40 0.04 33 1017.2
20260507194341 66 263 10.0 18.0 0.00 0.41 0.04 32 1017.3
20260507194319 66 262 10.0 18.0 0.00 0.41 0.04 32 1017.3
20260507194241 66 306 10.0 18.0 0.00 0.41 0.04 33 1017.3
20260507194142 66 300 11.0 18.0 0.00 0.41 0.04 33 1017.3
20260507194001 66 280 11.0 19.0 0.00 0.41 0.04 31 1017.3
20260507193955 66 300 11.0 19.0 0.00 0.41 0.04 32 1017.3
20260507193429 65 292 11.0 19.0 0.00 0.41 0.04 34 1017.4
20260507193328 65 274 11.0 19.0 0.00 0.41 0.04 32 1017.4
20260507193308 65 279 11.0 19.0 0.00 0.41 0.04 32 1017.4
20260507193235 65 272 11.0 19.0 0.00 0.41 0.04 33 1017.3
20260507193055 64 275 11.0 20.0 0.00 0.41 0.04 34 1017.3
20260507192941 64 286 11.0 20.0 0.00 0.41 0.04 36 1017.4
20260507192524 63 265 11.0 20.0 0.00 0.41 0.04 34 1017.3
20260507192318 63 251 12.0 23.0 0.00 0.41 0.04 33 1017.4
20260507192255 63 273 13.0 23.0 0.00 0.41 0.04 33 1017.4
20260507192224 63 297 13.0 23.0 0.00 0.41 0.04 33 1017.4
20260507192012 63 265 12.0 25.0 0.00 0.41 0.04 35 1017.4
20260507191911 63 327 12.0 25.0 0.00 0.41 0.04 35 1017.4
20260507191811 62 286 12.0 25.0 0.00 0.41 0.04 37 1017.4
20260507191750 62 285 12.0 25.0 0.00 0.41 0.04 37 1017.5
20260507191710 62 276 12.0 25.0 0.00 0.41 0.04 36 1017.5
20260507191611 62 281 12.0 25.0 0.00 0.41 0.04 35 1017.4
20260507191505 62 283 11.0 25.0 0.00 0.41 0.04 33 1017.4
20260507191405 62 258 11.0 25.0 0.00 0.41 0.04 34 1017.5
20260507191304 62 274 10.0 25.0 0.00 0.41 0.04 33 1017.4
20260507191244 62 289 9.0 25.0 0.00 0.41 0.04 33 1017.7
20260507191204 62 302 9.0 22.0 0.00 0.41 0.04 35 1017.7
20260507191105 61 284 9.0 17.0 0.00 0.41 0.04 35 1017.4
20260507190959 61 271 9.0 15.0 0.00 0.41 0.04 35 1017.4
20260507190858 61 311 8.0 15.0 0.00 0.41 0.04 34 1017.5
20260507190810 61 292 8.0 15.0 0.00 0.42 0.04 35 1017.5
20260507190804 61 323 8.0 15.0 0.00 0.42 0.04 35 1017.5
20260507190559 61 218 8.0 15.0 0.00 0.42 0.04 36 1017.5
20260507190454 60 309 8.0 15.0 0.00 0.42 0.04 36 1017.7
20260507190352 60 298 8.0 17.0 0.00 0.42 0.04 35 1017.7
20260507190253 60 239 9.0 17.0 0.00 0.42 0.04 35 1017.7
20260507190232 60 241 9.0 17.0 0.00 0.42 0.04 35 1017.7
20260507190153 60 276 9.0 17.0 0.00 0.42 0.04 34 1017.7
20260507190052 60 287 9.0 17.0 0.00 0.42 0.04 34 1017.7
20260507185955 60 227 8.0 17.0 0.00 0.42 0.04 34 1017.7
20260507185748 60 275 8.0 17.0 0.00 0.42 0.04 34 1017.7
20260507185726 60 281 8.0 17.0 0.00 0.42 0.04 34 1017.7
20260507185648 60 281 7.0 17.0 0.00 0.42 0.04 34 1017.7
20260507185545 60 283 8.0 17.0 0.00 0.42 0.04 34 1017.7
20260507185442 60 261 7.0 17.0 0.00 0.42 0.04 34 1017.8
20260507185341 60 302 7.0 15.0 0.00 0.42 0.04 35 1017.8
20260507185241 60 302 7.0 13.0 0.00 0.42 0.04 35 1017.7
20260507185221 60 241 7.0 13.0 0.00 0.42 0.04 35 1017.7
20260507185140 60 294 7.0 13.0 0.00 0.42 0.04 37 1017.7
20260507185040 60 248 7.0 13.0 0.00 0.42 0.04 37 1017.7
20260507184935 60 272 7.0 13.0 0.00 0.42 0.04 37 1017.7
20260507184834 60 252 7.0 13.0 0.00 0.42 0.04 36 1017.7
20260507184734 60 245 7.0 13.0 0.00 0.42 0.04 36 1017.7
20260507184715 60 286 7.0 13.0 0.00 0.42 0.04 36 1017.7
20260507184634 60 252 7.0 13.0 0.00 0.42 0.04 34 1017.7
20260507184535 60 278 6.0 13.0 0.00 0.42 0.04 35 1017.7
20260507184335 60 291 6.0 11.0 0.00 0.42 0.04 34 1017.8
20260507184208 60 258 6.0 11.0 0.00 0.42 0.04 35 1017.8
20260507184128 60 259 5.0 11.0 0.00 0.42 0.04 36 1017.8
20260507184028 60 285 5.0 11.0 0.00 0.42 0.04 35 1017.8
20260507183922 60 301 5.0 10.0 0.00 0.42 0.04 36 1017.8
20260507183822 60 308 5.0 10.0 0.00 0.42 0.04 35 1017.8
20260507183724 60 254 5.0 10.0 0.00 0.42 0.04 35 1017.8
20260507183702 60 249 5.0 10.0 0.00 0.42 0.04 37 1017.8
20260507183622 60 272 5.0 12.0 0.00 0.42 0.04 36 1017.8
20260507183523 60 235 6.0 12.0 0.00 0.42 0.04 37 1017.8
20260507183417 60 287 6.0 13.0 0.00 0.42 0.04 37 1017.8
20260507183323 60 304 6.0 13.0 0.00 0.42 0.04 35 1017.8
20260507183156 60 321 5.0 13.0 0.00 0.42 0.04 34 1017.9
20260507183116 60 292 5.0 13.0 0.00 0.42 0.04 35 1017.8
20260507183016 60 304 5.0 13.0 0.00 0.42 0.04 36 1017.9
20260507182910 60 261 5.0 13.0 0.00 0.42 0.04 35 1017.8
20260507182811 60 229 6.0 13.0 0.00 0.42 0.04 36 1017.9
20260507182723 60 290 6.0 13.0 0.00 0.42 0.04 36 1017.9
20260507182716 60 257 6.0 13.0 0.00 0.42 0.04 36 1017.9
20260507182517 60 259 6.0 13.0 0.00 0.42 0.04 36 1017.9
20260507182309 60 297 6.0 13.0 0.00 0.42 0.04 37 1017.9
20260507182223 60 298 6.0 13.0 0.00 0.42 0.04 37 1017.9
20260507182216 60 257 6.0 13.0 0.00 0.42 0.04 36 1017.9
20260507181858 60 250 5.0 13.0 0.00 0.42 0.04 36 1017.8
20260507181758 60 273 5.0 13.0 0.00 0.42 0.04 37 1017.9
20260507181659 60 260 4.0 10.0 0.00 0.42 0.04 37 1017.9
20260507181638 60 284 4.0 10.0 0.00 0.42 0.04 39 1017.8
20260507181559 60 258 4.0 8.0 0.00 0.42 0.04 39 1017.8
20260507181458 60 286 4.0 8.0 0.00 0.42 0.04 38 1017.8
20260507181352 60 243 4.0 8.0 0.00 0.42 0.04 38 1017.8
20260507181254 59 265 3.0 8.0 0.00 0.42 0.04 38 1017.8
20260507181153 59 288 3.0 8.0 0.00 0.42 0.04 38 1017.8
20260507181131 59 277 3.0 8.0 0.00 0.42 0.04 39 1017.8
20260507181054 59 259 3.0 8.0 0.00 0.42 0.04 39 1017.8
20260507180952 59 261 3.0 8.0 0.00 0.42 0.04 39 1017.8
20260507180902 59 240 3.0 8.0 0.00 0.42 0.04 39 1017.8
20260507180625 59 274 3.0 7.0 0.00 0.42 0.04 40 1017.8
20260507180548 59 267 3.0 7.0 0.00 0.42 0.04 40 1017.8
20260507180446 59 275 3.0 7.0 0.00 0.42 0.04 39 1017.9
20260507180342 59 275 3.0 7.0 0.00 0.42 0.04 39 1017.9
20260507180243 59 254 3.0 7.0 0.00 0.42 0.04 39 1017.9
20260507180226 59 227 3.0 7.0 0.00 0.42 0.04 38 1017.9
20260507180043 59 266 4.0 7.0 0.00 0.42 0.04 38 1017.9
20260507175940 59 265 3.0 8.0 0.00 0.42 0.04 38 1017.9
20260507175843 59 223 3.0 8.0 0.00 0.42 0.04 38 1017.9
20260507175647 59 277 3.0 9.0 0.00 0.42 0.04 40 1017.9
20260507175640 58 259 3.0 9.0 0.00 0.42 0.04 40 1017.9
20260507175435 58 263 4.0 9.0 0.00 0.42 0.04 40 1017.9
20260507175336 58 290 4.0 9.0 0.00 0.42 0.04 40 1017.9
20260507175129 58 277 4.0 9.0 0.00 0.42 0.04 40 1018.0
20260507175109 58 286 4.0 9.0 0.00 0.42 0.04 40 1018.0
20260507175035 58 269 4.0 9.0 0.00 0.42 0.04 40 1018.0
20260507174824 58 265 4.0 9.0 0.00 0.42 0.04 40 1018.0
20260507174722 58 275 4.0 9.0 0.00 0.42 0.04 40 1018.0
20260507174623 58 262 4.0 8.0 0.00 0.43 0.04 40 1018.0
20260507174602 58 288 4.0 8.0 0.00 0.43 0.04 40 1018.0
20260507174522 58 285 4.0 8.0 0.00 0.43 0.04 41 1018.0
20260507174423 58 294 4.0 8.0 0.00 0.43 0.04 39 1018.0
20260507174316 58 298 4.0 8.0 0.00 0.43 0.04 40 1018.0
20260507174242 58 278 4.0 10.0 0.00 0.43 0.04 40 1017.9
20260507174235 58 294 4.0 10.0 0.00 0.43 0.04 40 1018.0
20260507173811 58 287 6.0 13.0 0.00 0.43 0.04 38 1018.0
20260507173710 58 310 5.0 13.0 0.00 0.43 0.04 39 1018.0
20260507173611 58 310 5.0 13.0 0.00 0.43 0.04 38 1018.0
20260507173549 58 294 5.0 13.0 0.00 0.43 0.04 38 1018.1
20260507173510 58 299 5.0 13.0 0.00 0.43 0.04 38 1018.1
20260507173414 58 296 5.0 13.0 0.00 0.43 0.04 38 1018.0
20260507173207 58 289 4.0 13.0 0.00 0.43 0.04 37 1018.1
20260507173118 58 315 4.0 13.0 0.00 0.43 0.04 37 1018.1
20260507173111 58 279 4.0 13.0 0.00 0.43 0.04 37 1018.1
20260507172905 58 309 3.0 13.0 0.00 0.43 0.04 38 1018.1
20260507172759 58 302 3.0 8.0 0.00 0.43 0.04 39 1018.0
20260507172718 58 284 4.0 9.0 0.00 0.43 0.04 39 1018.1
20260507172710 58 327 4.0 9.0 0.00 0.43 0.04 38 1018.1
20260507172358 58 272 5.0 9.0 0.00 0.43 0.04 39 1018.1
20260507172306 58 290 5.0 9.0 0.00 0.43 0.04 39 1018.3
20260507172054 58 272 6.0 11.0 0.00 0.43 0.04 38 1018.3
20260507172031 58 275 6.0 11.0 0.00 0.43 0.04 38 1018.1
20260507172000 58 321 6.0 11.0 0.00 0.43 0.04 37 1018.1
20260507171653 58 300 5.0 11.0 0.00 0.43 0.04 39 1018.1
20260507171526 58 270 5.0 11.0 0.00 0.43 0.04 38 1018.3
20260507171446 58 263 4.0 11.0 0.00 0.43 0.04 38 1018.3
20260507171347 58 312 4.0 11.0 0.00 0.43 0.04 37 1018.3
20260507171244 58 293 4.0 11.0 0.00 0.43 0.04 38 1018.1
20260507171201 58 294 4.0 8.0 0.00 0.43 0.04 40 1018.1
20260507171047 58 292 4.0 8.0 0.00 0.43 0.04 40 1018.1
20260507170840 58 300 4.0 8.0 0.00 0.43 0.04 40 1018.1
20260507170734 58 279 4.0 8.0 0.00 0.43 0.04 39 1018.1
20260507170634 58 279 4.0 8.0 0.00 0.43 0.04 40 1018.1
20260507170513 58 254 4.0 8.0 0.00 0.43 0.04 39 1018.1
20260507170435 58 306 3.0 8.0 0.00 0.43 0.04 38 1018.1
20260507170337 58 293 3.0 8.0 0.00 0.43 0.04 40 1018.1
20260507170136 57 298 3.0 7.0 0.00 0.43 0.04 43 1018.3
20260507170007 57 301 3.0 7.0 0.00 0.43 0.04 43 1018.3
20260507165929 57 300 2.0 7.0 0.00 0.43 0.04 43 1018.1
20260507165829 57 288 2.0 7.0 0.00 0.43 0.04 42 1018.1
20260507165730 57 278 2.0 7.0 0.00 0.43 0.04 41 1018.3
20260507165627 57 278 2.0 7.0 0.00 0.43 0.04 41 1018.3
20260507165526 57 297 2.0 7.0 0.00 0.43 0.04 42 1018.3
20260507165503 57 294 2.0 7.0 0.00 0.43 0.04 42 1018.3
20260507165426 57 263 2.0 7.0 0.00 0.43 0.04 43 1018.3
20260507165322 56 261 2.0 7.0 0.00 0.43 0.04 42 1018.3
20260507165216 56 261 2.0 7.0 0.00 0.43 0.04 41 1018.1
20260507165116 56 313 3.0 7.0 0.00 0.43 0.04 42 1018.1
20260507165017 56 340 3.0 7.0 0.00 0.43 0.04 42 1018.1
20260507164956 56 55 3.0 7.0 0.00 0.43 0.04 42 1018.1
20260507164916 56 55 3.0 7.0 0.00 0.43 0.04 43 1018.1
20260507164817 56 69 3.0 7.0 0.00 0.43 0.04 43 1018.1
20260507164712 56 171 3.0 7.0 0.00 0.43 0.04 44 1018.1
20260507164612 57 171 3.0 7.0 0.00 0.43 0.04 45 1018.1
20260507164523 57 171 3.0 7.0 0.00 0.43 0.04 46 1018.1
20260507164517 57 165 3.0 7.0 0.00 0.43 0.04 46 1018.1
20260507164311 57 127 3.0 7.0 0.00 0.43 0.04 44 1018.1
20260507164211 57 127 3.0 7.0 0.00 0.43 0.04 45 1018.0
20260507164006 57 86 2.0 5.0 0.00 0.43 0.04 43 1018.1
20260507163943 57 86 2.0 5.0 0.00 0.43 0.04 43 1018.3
20260507163905 57 82 2.0 5.0 0.00 0.43 0.04 43 1018.3
20260507163808 57 136 2.0 10.0 0.00 0.43 0.04 42 1018.3
20260507163601 57 136 4.0 10.0 0.00 0.43 0.04 43 1018.3
20260507163500 57 124 4.0 10.0 0.00 0.43 0.04 42 1018.1
20260507163439 57 161 4.0 10.0 0.00 0.43 0.04 42 1018.1
20260507163400 57 157 4.0 10.0 0.00 0.43 0.04 44 1018.1
20260507163259 57 128 4.0 10.0 0.00 0.43 0.04 43 1018.1
20260507163059 57 128 4.0 10.0 0.00 0.43 0.04 41 1018.1
20260507162932 57 128 5.0 10.0 0.00 0.43 0.04 41 1018.1
20260507162852 57 127 4.0 10.0 0.00 0.43 0.04 40 1018.1
20260507162752 57 123 4.0 10.0 0.00 0.43 0.04 40 1018.3
20260507162650 57 126 4.0 10.0 0.01 0.43 0.04 41 1018.3
20260507162557 57 140 3.0 9.0 0.01 0.43 0.04 41 1018.3
20260507162425 57 136 3.0 9.0 0.01 0.43 0.04 42 1018.4
20260507162351 57 98 3.0 9.0 0.01 0.43 0.04 42 1018.3
20260507162251 58 98 3.0 9.0 0.01 0.43 0.04 43 1018.4
20260507162150 58 98 3.0 9.0 0.01 0.43 0.04 42 1018.3
20260507162048 58 98 4.0 9.0 0.01 0.43 0.04 42 1018.1
20260507161949 58 90 4.0 9.0 0.01 0.43 0.04 42 1018.3
20260507161922 58 87 4.0 10.0 0.01 0.43 0.04 42 1018.3
20260507161849 58 84 4.0 10.0 0.01 0.43 0.04 42 1018.4
20260507161749 58 294 4.0 10.0 0.01 0.43 0.04 43 1018.3
20260507161649 58 294 4.0 10.0 0.01 0.43 0.04 42 1018.4
20260507161550 58 294 4.0 10.0 0.01 0.43 0.04 42 1018.4
20260507161459 58 263 3.0 10.0 0.01 0.43 0.04 44 1018.3
20260507161452 58 247 3.0 10.0 0.01 0.43 0.04 43 1018.3
20260507161248 58 262 3.0 10.0 0.01 0.43 0.04 43 1018.1
20260507161148 58 90 3.0 10.0 0.01 0.43 0.04 42 1018.1
20260507161049 58 120 2.0 10.0 0.01 0.43 0.04 41 1018.1
20260507161029 58 127 2.0 9.0 0.01 0.43 0.04 41 1018.4
20260507160842 58 101 2.0 4.0 0.01 0.43 0.04 41 1018.4
20260507160750 58 84 2.0 4.0 0.01 0.43 0.04 41 1018.4
20260507160540 58 44 2.0 6.0 0.01 0.43 0.04 39 1018.4
20260507160440 58 26 2.0 6.0 0.01 0.43 0.04 41 1018.4
20260507160423 58 26 2.0 6.0 0.01 0.43 0.04 42 1018.4
20260507160338 58 304 2.0 6.0 0.01 0.43 0.04 42 1018.5
20260507160239 58 304 3.0 6.0 0.01 0.43 0.04 43 1018.5
20260507160136 58 304 3.0 10.0 0.01 0.43 0.04 42 1018.4
20260507160034 58 305 3.0 10.0 0.01 0.43 0.04 40 1018.4
20260507155922 58 88 4.0 10.0 0.01 0.43 0.04 40 1018.4
20260507155837 58 88 4.0 10.0 0.01 0.43 0.04 41 1018.4
20260507155629 58 88 4.0 10.0 0.01 0.43 0.04 41 1018.4
20260507155528 58 87 4.0 10.0 0.01 0.43 0.04 42 1018.4
20260507155424 58 68 5.0 10.0 0.01 0.43 0.04 42 1018.3
20260507155322 58 88 5.0 10.0 0.01 0.43 0.04 42 1018.4
20260507155223 58 71 5.0 10.0 0.01 0.43 0.04 42 1018.4
20260507155122 57 76 5.0 9.0 0.01 0.43 0.04 42 1018.4
20260507155030 58 75 5.0 9.0 0.02 0.43 0.04 43 1018.4
20260507155023 58 47 5.0 9.0 0.02 0.43 0.04 42 1018.4
20260507154817 58 63 5.0 9.0 0.02 0.43 0.04 42 1018.4
20260507154717 58 55 5.0 9.0 0.02 0.43 0.04 42 1018.4
20260507154618 58 41 5.0 9.0 0.02 0.43 0.04 42 1018.4
20260507154516 58 35 5.0 10.0 0.02 0.43 0.04 41 1018.4
20260507154420 58 67 5.0 10.0 0.02 0.43 0.04 41 1018.4
20260507154415 58 61 5.0 10.0 0.02 0.43 0.04 41 1018.4
20260507154313 59 57 5.0 11.0 0.02 0.43 0.04 42 1018.4
20260507154214 59 29 5.0 11.0 0.02 0.43 0.04 40 1018.4
20260507154113 59 33 5.0 11.0 0.02 0.43 0.04 40 1018.4
20260507154013 59 77 5.0 11.0 0.02 0.43 0.04 42 1018.4
20260507153920 59 36 6.0 11.0 0.02 0.43 0.04 42 1018.3
20260507153913 59 61 6.0 11.0 0.02 0.43 0.04 42 1018.3
20260507153813 58 56 6.0 11.0 0.02 0.43 0.04 42 1018.4
20260507153713 58 41 6.0 11.0 0.02 0.43 0.04 42 1018.4
20260507153613 58 46 6.0 11.0 0.02 0.43 0.04 42 1018.4
20260507153513 58 67 6.0 11.0 0.02 0.43 0.04 42 1018.4
20260507153418 58 55 6.0 11.0 0.02 0.43 0.04 42 1018.4
20260507153413 58 57 6.0 11.0 0.02 0.43 0.04 42 1018.4
20260507153314 58 44 6.0 11.0 0.02 0.43 0.04 41 1018.4
20260507153213 58 37 6.0 11.0 0.02 0.43 0.04 42 1018.4
20260507153114 58 42 6.0 11.0 0.02 0.43 0.04 41 1018.4
20260507153013 58 67 6.0 11.0 0.02 0.43 0.04 40 1018.4
20260507152929 58 39 6.0 11.0 0.02 0.43 0.04 40 1018.4
20260507152925 58 40 6.0 11.0 0.02 0.43 0.04 40 1018.4
20260507152611 58 49 4.0 9.0 0.01 0.42 0.03 41 1018.4
20260507152511 58 38 4.0 9.0 0.01 0.42 0.03 41 1018.4
20260507152417 58 28 4.0 9.0 0.01 0.42 0.03 41 1018.4
20260507152411 58 19 4.0 9.0 0.01 0.42 0.03 41 1018.4
20260507152311 58 64 4.0 9.0 0.01 0.42 0.03 41 1018.4
20260507152212 58 52 3.0 8.0 0.01 0.42 0.03 41 1018.4
20260507152117 58 83 3.0 7.0 0.01 0.42 0.03 42 1018.4
20260507151912 58 94 4.0 7.0 0.01 0.42 0.03 43 1018.4
20260507151811 58 94 4.0 8.0 0.01 0.42 0.03 43 1018.4
20260507151711 57 94 4.0 8.0 0.01 0.42 0.03 45 1018.4
20260507151611 57 78 4.0 9.0 0.01 0.42 0.03 45 1018.4
20260507151509 57 57 4.0 9.0 0.01 0.42 0.03 46 1018.4
20260507151418 57 34 4.0 9.0 0.01 0.42 0.03 47 1018.4
20260507151410 57 40 4.0 9.0 0.01 0.42 0.03 47 1018.4
20260507151307 57 31 4.0 9.0 0.01 0.42 0.03 44 1018.4
20260507151208 57 61 4.0 9.0 0.01 0.42 0.03 43 1018.4
20260507151107 57 40 4.0 9.0 0.01 0.42 0.03 42 1018.4
20260507151007 58 61 3.0 9.0 0.01 0.42 0.03 42 1018.3
20260507150920 58 15 3.0 9.0 0.01 0.42 0.03 43 1018.4
20260507150915 58 51 3.0 9.0 0.01 0.42 0.03 43 1018.4
20260507150707 58 24 3.0 9.0 0.01 0.42 0.03 44 1018.4
20260507150632 58 344 3.0 5.0 0.01 0.42 0.03 44 1018.4
20260507150518 57 132 2.0 5.0 0.01 0.42 0.03 43 1018.4
20260507150215 57 132 2.0 5.0 0.01 0.42 0.03 43 1018.3
20260507150006 56 82 2.0 6.0 0.01 0.42 0.03 43 1018.3
20260507145917 56 88 2.0 6.0 0.01 0.42 0.03 44 1018.3
20260507145906 56 71 2.0 6.0 0.01 0.42 0.03 44 1018.3
20260507145806 56 46 2.0 6.0 0.01 0.42 0.03 44 1018.3
20260507145709 56 55 3.0 6.0 0.01 0.42 0.03 44 1018.1
20260507145504 56 49 2.0 6.0 0.01 0.42 0.03 43 1018.3
20260507145404 55 49 2.0 6.0 0.01 0.42 0.03 43 1018.3
20260507145306 55 49 2.0 6.0 0.01 0.42 0.03 43 1018.1
20260507145202 55 49 2.0 6.0 0.01 0.42 0.03 44 1018.1
20260507145100 55 49 2.0 6.0 0.01 0.42 0.03 43 1018.1
20260507144959 55 9 1.0 6.0 0.00 0.41 0.03 41 1018.1
20260507144918 55 9 1.0 6.0 0.00 0.41 0.02 41 1018.1
20260507144859 55 9 1.0 6.0 0.00 0.41 0.02 40 1018.1
20260507144759 55 19 1.0 6.0 0.00 0.41 0.02 41 1018.3
20260507144706 55 5 1.0 5.0 0.00 0.41 0.02 41 1018.3
20260507144459 55 47 1.0 4.0 0.00 0.41 0.02 39 1018.1
20260507144417 55 47 1.0 4.0 0.00 0.41 0.02 39 1018.0
20260507144359 55 47 1.0 4.0 0.00 0.41 0.02 39 1018.0
20260507144259 55 47 2.0 4.0 0.00 0.41 0.02 38 1018.1
20260507144200 55 47 2.0 6.0 0.00 0.41 0.02 39 1018.1
20260507144100 55 47 2.0 6.0 0.00 0.41 0.02 39 1018.1
20260507143959 55 47 3.0 9.0 0.00 0.41 0.02 39 1018.1
20260507143918 55 47 3.0 9.0 0.00 0.41 0.02 39 1018.1
20260507143858 55 47 3.0 9.0 0.00 0.41 0.02 38 1018.1
20260507143759 55 5 3.0 9.0 0.00 0.41 0.02 38 1018.1
20260507143659 55 5 3.0 9.0 0.01 0.41 0.02 41 1018.3
20260507143559 55 329 3.0 9.0 0.01 0.41 0.02 40 1018.1
20260507143458 55 11 3.0 9.0 0.01 0.41 0.02 40 1018.3
20260507143419 55 15 3.0 9.0 0.01 0.41 0.02 40 1018.3
20260507143359 55 15 3.0 9.0 0.01 0.41 0.02 40 1018.3
20260507143259 55 44 3.0 9.0 0.01 0.41 0.02 40 1018.1
20260507143155 55 28 3.0 9.0 0.01 0.41 0.02 40 1018.1
20260507143055 55 5 3.0 9.0 0.01 0.41 0.02 39 1018.1
20260507142955 55 38 3.0 6.0 0.01 0.41 0.02 40 1018.1
20260507142918 55 54 3.0 6.0 0.01 0.41 0.02 41 1018.1
20260507142855 55 75 3.0 6.0 0.01 0.41 0.02 41 1018.1
20260507142755 54 75 3.0 6.0 0.01 0.41 0.02 41 1018.1
20260507142702 54 82 3.0 6.0 0.01 0.41 0.02 40 1018.1
20260507142455 54 107 2.0 6.0 0.01 0.41 0.02 40 1018.1
20260507142417 54 107 2.0 6.0 0.01 0.41 0.02 41 1018.0
20260507142355 54 107 2.0 6.0 0.01 0.41 0.02 41 1018.0
20260507142255 54 107 2.0 6.0 0.01 0.41 0.02 41 1018.0
20260507142154 54 118 2.0 6.0 0.01 0.41 0.02 41 1018.0
20260507142053 54 118 2.0 6.0 0.01 0.41 0.02 41 1018.0
20260507141954 54 103 2.0 6.0 0.01 0.41 0.02 40 1018.0
20260507141918 54 105 2.0 6.0 0.01 0.41 0.02 40 1018.0
20260507141858 54 108 2.0 7.0 0.01 0.41 0.02 40 1018.0
20260507141651 54 161 2.0 7.0 0.01 0.41 0.02 42 1018.0
20260507141551 54 348 2.0 7.0 0.01 0.41 0.02 39 1018.0
20260507141525 54 348 3.0 9.0 0.01 0.41 0.02 39 1018.0
20260507141351 54 348 3.0 12.0 0.01 0.41 0.02 39 1018.0
20260507141252 54 21 4.0 12.0 0.01 0.41 0.02 41 1018.0
20260507141151 53 144 4.0 12.0 0.01 0.41 0.02 40 1018.0
20260507141051 53 152 4.0 12.0 0.01 0.41 0.02 41 1018.0
20260507140950 53 153 4.0 12.0 0.01 0.41 0.02 39 1018.0
20260507140918 53 155 4.0 12.0 0.01 0.41 0.02 39 1018.0
20260507140852 53 155 4.0 12.0 0.01 0.41 0.02 40 1018.0
20260507140751 53 5 4.0 12.0 0.01 0.41 0.02 40 1018.0
20260507140651 53 331 4.0 12.0 0.01 0.41 0.02 41 1018.0
20260507140558 53 289 4.0 12.0 0.01 0.41 0.02 41 1018.0
20260507140417 53 238 3.0 10.0 0.01 0.41 0.02 43 1018.0
20260507140351 53 233 3.0 10.0 0.01 0.41 0.02 42 1018.0
20260507140251 52 227 3.0 10.0 0.01 0.41 0.02 43 1017.9
20260507140151 52 325 2.0 8.0 0.01 0.41 0.02 42 1018.0
20260507140048 52 309 2.0 9.0 0.01 0.41 0.02 43 1018.0
20260507135946 52 234 2.0 9.0 0.01 0.41 0.02 43 1018.0
20260507135919 52 234 2.0 9.0 0.01 0.41 0.02 42 1018.0
20260507135846 52 193 2.0 9.0 0.01 0.41 0.02 44 1017.9
20260507135754 52 204 3.0 9.0 0.01 0.41 0.02 45 1017.9
20260507135548 52 204 3.0 9.0 0.01 0.41 0.02 45 1017.9
20260507135448 52 204 3.0 9.0 0.01 0.41 0.02 44 1018.0
20260507135418 52 204 3.0 9.0 0.01 0.41 0.02 45 1018.0
20260507135347 52 204 3.0 9.0 0.01 0.41 0.02 45 1017.9
20260507135301 52 140 2.0 9.0 0.01 0.41 0.02 44 1017.9
20260507134948 52 101 2.0 6.0 0.01 0.41 0.02 42 1017.9
20260507134917 51 101 2.0 6.0 0.01 0.41 0.02 43 1017.9
20260507134855 51 101 2.0 6.0 0.01 0.41 0.02 43 1017.9
20260507134647 51 107 2.0 4.0 0.01 0.41 0.02 44 1017.9
20260507134547 51 190 2.0 4.0 0.01 0.41 0.02 45 1017.8
20260507134525 51 155 1.0 4.0 0.01 0.41 0.02 45 1017.8
20260507134347 51 154 1.0 4.0 0.01 0.41 0.02 46 1017.9
20260507134247 51 62 1.0 4.0 0.01 0.41 0.02 46 1017.9
20260507134142 51 62 2.0 4.0 0.01 0.41 0.02 46 1017.9
20260507134051 51 62 2.0 6.0 0.01 0.41 0.02 45 1017.9
20260507133918 51 25 2.0 7.0 0.01 0.41 0.02 44 1018.0
20260507133843 51 25 2.0 7.0 0.01 0.41 0.02 45 1018.0
20260507133743 51 25 2.0 7.0 0.01 0.41 0.02 46 1017.9
20260507133650 52 25 2.0 7.0 0.00 0.40 0.01 45 1017.9
20260507133443 52 165 2.0 7.0 0.00 0.40 0.01 45 1017.9
20260507133413 52 165 2.0 7.0 0.01 0.40 0.01 45 1017.9
20260507133343 52 165 2.0 7.0 0.01 0.40 0.01 44 1017.9
20260507133243 52 164 3.0 7.0 0.01 0.40 0.01 43 1017.9
20260507133143 52 198 3.0 7.0 0.01 0.40 0.01 44 1017.9
20260507133043 52 189 3.0 7.0 0.01 0.40 0.01 44 1017.8
20260507132914 52 127 3.0 7.0 0.01 0.40 0.01 45 1017.9
20260507132842 52 126 3.0 7.0 0.01 0.40 0.01 43 1017.9
20260507132743 52 110 3.0 9.0 0.01 0.40 0.01 43 1017.9
20260507132643 52 106 3.0 9.0 0.01 0.40 0.01 43 1017.9
20260507132549 52 84 3.0 9.0 0.01 0.40 0.01 43 1018.0
20260507132414 51 84 3.0 9.0 0.01 0.40 0.01 43 1018.0
20260507132344 51 84 4.0 15.0 0.01 0.40 0.01 43 1018.0
20260507132239 51 71 4.0 15.0 0.01 0.40 0.01 44 1018.1
20260507132139 51 40 4.0 15.0 0.01 0.40 0.01 44 1018.1
20260507132039 51 51 4.0 15.0 0.01 0.40 0.01 45 1018.0
20260507132021 51 43 4.0 15.0 0.01 0.40 0.01 44 1018.0
20260507131840 51 22 5.0 15.0 0.01 0.40 0.01 44 1017.9
20260507131739 51 78 5.0 15.0 0.01 0.40 0.01 44 1017.9
20260507131639 51 85 6.0 15.0 0.01 0.40 0.01 45 1017.9
20260507131540 51 87 6.0 15.0 0.01 0.40 0.01 44 1017.9
20260507131438 51 110 7.0 15.0 0.01 0.40 0.01 44 1017.9
20260507131413 50 113 7.0 15.0 0.01 0.40 0.01 44 1017.9
20260507131346 50 113 8.0 22.0 0.01 0.40 0.01 44 1017.8
20260507131145 50 211 9.0 22.0 0.01 0.40 0.01 45 1017.8
20260507130939 50 223 11.0 22.0 0.01 0.40 0.01 44 1017.7
20260507130915 50 238 11.0 22.0 0.01 0.40 0.01 44 1017.7
20260507130840 50 238 11.0 22.0 0.01 0.40 0.01 44 1017.5
20260507130753 50 232 11.0 22.0 0.01 0.40 0.01 45 1017.5
20260507130521 49 232 12.0 22.0 0.01 0.40 0.01 44 1017.4
20260507130340 49 241 11.0 20.0 0.01 0.40 0.01 45 1017.4
20260507130141 49 247 11.0 20.0 0.01 0.40 0.01 46 1017.5
20260507125933 49 250 11.0 19.0 0.01 0.40 0.01 46 1017.5
20260507125915 49 246 11.0 19.0 0.01 0.40 0.01 46 1017.5
20260507125828 49 234 11.0 19.0 0.01 0.40 0.01 46 1017.4
20260507125735 49 221 11.0 19.0 0.01 0.40 0.01 46 1017.5
20260507125528 48 284 12.0 21.0 0.01 0.40 0.01 46 1017.4
20260507125427 48 244 12.0 21.0 0.01 0.40 0.01 46 1017.4
20260507125414 48 252 12.0 21.0 0.01 0.40 0.01 46 1017.4
20260507125327 48 230 12.0 21.0 0.01 0.40 0.01 46 1017.4
20260507125227 48 268 13.0 25.0 0.01 0.40 0.01 46 1017.4
20260507125125 48 323 13.0 25.0 0.01 0.40 0.01 47 1017.5
20260507125028 48 291 14.0 25.0 0.01 0.40 0.01 47 1017.4
20260507125022 47 265 14.0 25.0 0.01 0.40 0.01 47 1017.4
20260507124824 47 0 15.0 25.0 0.01 0.40 0.01 47 1017.4
20260507124725 47 260 14.0 25.0 0.01 0.40 0.01 47 1017.4
20260507124625 47 250 14.0 25.0 0.01 0.40 0.01 47 1017.4
20260507124533 47 243 14.0 25.0 0.01 0.40 0.01 48 1017.4
20260507124414 47 247 14.0 25.0 0.01 0.40 0.01 48 1017.3
20260507124325 46 250 14.0 25.0 0.01 0.40 0.01 48 1017.4
20260507124232 46 252 13.0 24.0 0.01 0.40 0.01 49 1017.4
20260507124024 46 250 12.0 24.0 0.01 0.40 0.01 49 1017.5
20260507123921 46 241 12.0 24.0 0.01 0.40 0.01 49 1017.4
20260507123914 46 254 12.0 24.0 0.01 0.40 0.01 49 1017.4
20260507123819 46 231 11.0 24.0 0.01 0.40 0.01 50 1017.4
20260507123720 46 217 10.0 24.0 0.01 0.40 0.01 49 1017.4
20260507123619 46 245 10.0 24.0 0.01 0.40 0.01 49 1017.4
20260507123517 46 244 9.0 24.0 0.01 0.40 0.01 49 1017.5
20260507123411 46 252 8.0 24.0 0.00 0.39 0.01 49 1017.5
20260507123310 46 238 8.0 20.0 0.00 0.39 0.00 49 1017.5
20260507123212 46 231 8.0 20.0 0.00 0.39 0.00 49 1017.5
20260507123111 46 246 8.0 20.0 0.00 0.39 0.00 49 1017.5
20260507123011 45 264 8.0 18.0 0.00 0.39 0.00 50 1017.5
20260507122911 45 234 7.0 15.0 0.00 0.39 0.00 49 1017.5
20260507122906 46 234 7.0 15.0 0.00 0.39 0.00 50 1017.5
20260507122804 45 206 8.0 15.0 0.00 0.39 0.00 50 1017.5
20260507122705 46 182 7.0 15.0 0.00 0.39 0.00 49 1017.7
20260507122604 46 256 7.0 15.0 0.00 0.39 0.00 49 1017.5
20260507122504 46 213 7.0 16.0 0.00 0.39 0.00 49 1017.5
20260507122412 46 239 8.0 19.0 0.00 0.39 0.00 49 1017.5
20260507122358 46 211 8.0 19.0 0.00 0.39 0.00 49 1017.5
20260507122258 46 236 9.0 19.0 0.00 0.39 0.00 49 1017.5
20260507122157 46 228 9.0 22.0 0.00 0.39 0.00 49 1017.5
20260507122058 46 240 10.0 22.0 0.00 0.39 0.00 49 1017.5
20260507121957 46 202 10.0 22.0 0.00 0.39 0.00 49 1017.7
20260507121911 46 257 10.0 22.0 0.00 0.39 0.00 49 1017.7
20260507121858 46 229 11.0 22.0 0.00 0.39 0.00 49 1017.7
20260507121651 46 253 12.0 22.0 0.00 0.39 0.00 48 1017.7
20260507121550 46 277 12.0 22.0 0.00 0.39 0.00 48 1017.7
20260507121449 46 239 11.0 22.0 0.00 0.39 0.00 48 1017.7
20260507121411 46 250 11.0 22.0 0.00 0.39 0.00 49 1017.7
20260507121346 46 213 11.0 22.0 0.00 0.39 0.00 48 1017.7
20260507121244 46 244 11.0 22.0 0.00 0.39 0.00 49 1017.7
20260507121144 46 240 11.0 19.0 0.00 0.39 0.00 49 1017.5
20260507121042 46 229 11.0 19.0 0.00 0.39 0.00 49 1017.5
20260507120949 46 249 11.0 19.0 0.00 0.39 0.00 49 1017.5
20260507120941 46 258 11.0 19.0 0.00 0.39 0.00 49 1017.5
20260507120737 46 244 11.0 19.0 0.00 0.39 0.00 49 1017.5
20260507120636 45 269 11.0 19.0 0.00 0.39 0.00 49 1017.5
20260507120549 45 317 11.0 19.0 0.00 0.39 0.00 49 1017.5
20260507120542 45 287 11.0 19.0 0.00 0.39 0.00 49 1017.5
20260507120229 45 255 11.0 19.0 0.00 0.39 0.00 49 1017.5
20260507120130 45 238 12.0 19.0 0.00 0.39 0.00 49 1017.5
20260507120028 45 292 11.0 19.0 0.00 0.39 0.00 49 1017.5
20260507115927 45 258 11.0 19.0 0.00 0.39 0.00 49 1017.4
20260507115910 45 266 11.0 19.0 0.00 0.39 0.00 49 1017.4
20260507115828 45 234 10.0 19.0 0.00 0.39 0.00 49 1017.4
20260507115735 45 240 10.0 18.0 0.00 0.39 0.00 50 1017.5
20260507115527 44 248 8.0 17.0 0.00 0.39 0.00 50 1017.5
20260507115428 44 228 8.0 17.0 0.00 0.39 0.00 50 1017.4
20260507115408 44 229 8.0 17.0 0.00 0.39 0.00 50 1017.4
20260507115328 44 286 7.0 17.0 0.00 0.39 0.00 51 1017.5
20260507115229 44 265 6.0 17.0 0.00 0.39 0.00 51 1017.4
20260507115135 44 232 5.0 16.0 0.00 0.39 0.00 51 1017.4
20260507114939 44 266 4.0 12.0 0.00 0.39 0.00 51 1017.5
20260507114933 44 259 4.0 12.0 0.00 0.39 0.00 51 1017.5
20260507114727 44 284 4.0 10.0 0.00 0.39 0.00 52 1017.4
20260507114625 44 252 4.0 10.0 0.00 0.39 0.00 52 1017.5
20260507114526 44 219 4.0 10.0 0.00 0.39 0.00 52 1017.7
20260507114427 44 198 4.0 10.0 0.00 0.39 0.00 52 1017.5
20260507114403 44 242 4.0 10.0 0.00 0.39 0.00 52 1017.5
20260507114331 44 206 4.0 12.0 0.00 0.39 0.00 52 1017.5
20260507114016 44 259 4.0 12.0 0.00 0.39 0.00 52 1017.5
20260507113928 44 161 5.0 14.0 0.00 0.39 0.00 52 1017.5
20260507113920 44 198 5.0 14.0 0.00 0.39 0.00 52 1017.5
20260507113717 44 256 6.0 14.0 0.00 0.39 0.00 51 1017.7